Time,TemperatureF,DewpointF,PressureIn,WindDirection,WindDirectionDegrees,WindSpeedMPH,WindSpeedGustMPH,Humidity,HourlyPrecipIn,Conditions,Clouds,dailyrainin,SoftwareType,DateUTC
2013-02-11 00:00:00,53.6,14.6,28.29,SSW,204,0.0,0.0,21,0.00,,,0.94,VWS V14.00,2013-02-11 06:00:00,
2013-02-11 00:02:00,53.6,14.6,28.29,SSW,204,0.0,0.0,21,0.00,,,0.00,VWS V14.00,2013-02-11 06:02:00,
2013-02-11 00:04:00,53.4,14.5,28.26,WNW,297,3.6,4.0,21,0.00,,,0.00,VWS V14.00,2013-02-11 06:04:00,
2013-02-11 00:05:00,53.6,14.6,28.26,WNW,297,3.6,4.0,21,0.00,,,0.00,VWS V14.00,2013-02-11 06:05:00,
2013-02-11 00:07:00,53.8,14.8,28.26,WNW,297,0.0,4.0,21,0.00,,,0.00,VWS V14.00,2013-02-11 06:07:00,
2013-02-11 00:09:00,53.8,14.8,28.26,WNW,297,0.0,4.0,21,0.00,,,0.00,VWS V14.00,2013-02-11 06:09:00,
2013-02-11 00:10:00,53.8,14.8,28.26,WNW,297,0.0,4.0,21,0.00,,,0.00,VWS V14.00,2013-02-11 06:10:00,
2013-02-11 00:11:00,53.8,14.8,28.26,WNW,297,0.0,4.0,21,0.00,,,0.00,VWS V14.00,2013-02-11 06:11:00,
2013-02-11 00:13:00,53.8,14.8,28.26,WNW,297,0.0,4.0,21,0.00,,,0.00,VWS V14.00,2013-02-11 06:13:00,
2013-02-11 00:15:00,53.6,14.6,28.26,WNW,297,0.0,4.0,21,0.00,,,0.00,VWS V14.00,2013-02-11 06:15:00,
2013-02-11 00:16:00,53.6,14.6,28.26,WNW,296,0.0,0.0,21,0.00,,,0.00,VWS V14.00,2013-02-11 06:16:00,
2013-02-11 00:19:00,53.4,14.5,28.26,WNW,297,0.0,0.0,21,0.00,,,0.00,VWS V14.00,2013-02-11 06:19:00,
2013-02-11 00:21:00,53.4,14.5,28.26,WNW,297,0.0,0.0,21,0.00,,,0.00,VWS V14.00,2013-02-11 06:21:00,
2013-02-11 00:24:00,53.2,14.3,28.26,WNW,296,0.0,0.0,21,0.00,,,0.00,VWS V14.00,2013-02-11 06:24:00,
2013-02-11 00:26:00,53.2,14.3,28.26,WNW,297,0.0,0.0,21,0.00,,,0.00,VWS V14.00,2013-02-11 06:26:00,
2013-02-11 00:27:00,53.4,14.5,28.26,WNW,297,0.0,0.0,21,0.00,,,0.00,VWS V14.00,2013-02-11 06:27:00,
2013-02-11 00:28:00,53.4,14.5,28.26,WNW,297,0.0,0.0,21,0.00,,,0.00,VWS V14.00,2013-02-11 06:28:00,
2013-02-11 00:30:00,53.4,14.5,28.26,WNW,298,0.0,0.0,21,0.00,,,0.00,VWS V14.00,2013-02-11 06:30:00,
2013-02-11 00:32:00,53.4,14.5,28.26,WNW,302,0.0,0.0,21,0.00,,,0.00,VWS V14.00,2013-02-11 06:32:00,
2013-02-11 00:33:00,53.4,14.5,28.26,WNW,302,0.0,0.0,21,0.00,,,0.00,VWS V14.00,2013-02-11 06:33:00,
2013-02-11 00:34:00,53.2,14.3,28.26,WNW,302,0.0,0.0,21,0.00,,,0.00,VWS V14.00,2013-02-11 06:34:00,
2013-02-11 00:35:00,53.2,14.3,28.26,WNW,302,0.0,0.0,21,0.00,,,0.00,VWS V14.00,2013-02-11 06:35:00,
2013-02-11 00:39:00,53.2,14.3,28.26,WNW,303,0.0,0.0,21,0.00,,,0.00,VWS V14.00,2013-02-11 06:39:00,
2013-02-11 00:40:00,53.2,14.3,28.26,North,353,2.7,2.7,21,0.00,,,0.00,VWS V14.00,2013-02-11 06:40:00,
2013-02-11 00:41:00,53.4,14.5,28.26,North,353,2.7,3.6,21,0.00,,,0.00,VWS V14.00,2013-02-11 06:41:00,
2013-02-11 00:44:00,53.6,14.6,28.26,North,353,0.0,3.6,21,0.00,,,0.00,VWS V14.00,2013-02-11 06:44:00,
2013-02-11 00:45:00,53.8,14.8,28.26,North,353,0.0,3.6,21,0.00,,,0.00,VWS V14.00,2013-02-11 06:45:00,
2013-02-11 00:46:00,53.8,14.8,28.26,North,353,0.0,0.0,21,0.00,,,0.00,VWS V14.00,2013-02-11 06:46:00,
2013-02-11 00:50:00,54.0,14.9,28.26,North,353,0.0,0.0,21,0.00,,,0.00,VWS V14.00,2013-02-11 06:50:00,
2013-02-11 00:51:00,54.0,14.9,28.26,North,353,0.0,0.0,21,0.00,,,0.00,VWS V14.00,2013-02-11 06:51:00,
2013-02-11 00:53:00,53.8,14.8,28.26,North,353,0.0,0.0,21,0.00,,,0.00,VWS V14.00,2013-02-11 06:53:00,
2013-02-11 00:55:00,53.8,14.8,28.26,North,353,0.0,0.0,21,0.00,,,0.00,VWS V14.00,2013-02-11 06:55:00,
2013-02-11 00:56:00,53.8,14.8,28.26,North,353,0.0,0.0,21,0.00,,,0.00,VWS V14.00,2013-02-11 06:56:00,
2013-02-11 00:57:00,53.6,14.6,28.26,North,353,0.0,0.0,21,0.00,,,0.00,VWS V14.00,2013-02-11 06:57:00,
2013-02-11 00:59:00,53.4,14.5,28.26,North,353,0.0,0.0,21,0.00,,,0.00,VWS V14.00,2013-02-11 06:59:00,
2013-02-11 01:01:00,53.4,14.5,28.26,North,353,0.0,0.0,21,0.00,,,0.00,VWS V14.00,2013-02-11 07:01:00,
2013-02-11 01:02:00,53.4,14.5,28.26,North,353,0.0,0.0,21,0.00,,,0.00,VWS V14.00,2013-02-11 07:02:00,
2013-02-11 01:06:00,53.4,14.5,28.26,North,353,0.0,0.0,21,0.00,,,0.00,VWS V14.00,2013-02-11 07:06:00,
2013-02-11 01:07:00,53.4,14.5,28.26,North,353,0.0,0.0,21,0.00,,,0.00,VWS V14.00,2013-02-11 07:07:00,
2013-02-11 01:08:00,53.4,14.5,28.26,North,353,0.0,0.0,21,0.00,,,0.00,VWS V14.00,2013-02-11 07:08:00,
2013-02-11 01:12:00,53.4,14.5,28.26,North,353,0.0,0.0,21,0.00,,,0.00,VWS V14.00,2013-02-11 07:12:00,
2013-02-11 01:13:00,53.4,14.5,28.26,North,353,0.0,0.0,21,0.00,,,0.00,VWS V14.00,2013-02-11 07:13:00,
2013-02-11 01:15:00,53.4,14.5,28.26,North,353,0.0,0.0,21,0.00,,,0.00,VWS V14.00,2013-02-11 07:15:00,
2013-02-11 01:18:00,53.4,14.5,28.26,North,353,0.0,0.0,21,0.00,,,0.00,VWS V14.00,2013-02-11 07:18:00,
2013-02-11 01:19:00,53.4,14.5,28.26,North,353,0.0,0.0,21,0.00,,,0.00,VWS V14.00,2013-02-11 07:19:00,
2013-02-11 01:20:00,53.4,14.5,28.26,North,353,0.0,0.0,21,0.00,,,0.00,VWS V14.00,2013-02-11 07:20:00,
2013-02-11 01:24:00,53.4,14.5,28.26,North,353,0.0,0.0,21,0.00,,,0.00,VWS V14.00,2013-02-11 07:24:00,
2013-02-11 01:25:00,53.4,14.5,28.26,North,353,0.0,0.0,21,0.00,,,0.00,VWS V14.00,2013-02-11 07:25:00,
2013-02-11 01:30:00,53.4,14.5,28.26,North,353,0.0,0.0,21,0.00,,,0.00,VWS V14.00,2013-02-11 07:30:00,
2013-02-11 01:31:00,53.4,14.5,28.26,North,353,0.0,0.0,21,0.00,,,0.00,VWS V14.00,2013-02-11 07:31:00,
2013-02-11 01:35:00,53.2,14.3,28.26,North,353,0.0,0.0,21,0.00,,,0.00,VWS V14.00,2013-02-11 07:35:00,
2013-02-11 01:36:00,53.2,14.3,28.26,North,353,0.0,0.0,21,0.00,,,0.00,VWS V14.00,2013-02-11 07:36:00,
2013-02-11 01:37:00,53.4,14.5,28.26,North,353,0.0,0.0,21,0.00,,,0.00,VWS V14.00,2013-02-11 07:37:00,
2013-02-11 01:41:00,53.2,14.3,28.26,North,353,0.0,0.0,21,0.00,,,0.00,VWS V14.00,2013-02-11 07:41:00,
2013-02-11 01:42:00,53.2,14.3,28.26,North,353,0.0,0.0,21,0.00,,,0.00,VWS V14.00,2013-02-11 07:42:00,
2013-02-11 01:43:00,53.2,14.3,28.26,North,353,0.0,0.0,21,0.00,,,0.00,VWS V14.00,2013-02-11 07:43:00,
2013-02-11 01:47:00,52.9,14.0,28.23,North,353,0.0,0.0,21,0.00,,,0.00,VWS V14.00,2013-02-11 07:47:00,
2013-02-11 01:48:00,52.9,14.0,28.23,North,353,0.0,0.0,21,0.00,,,0.00,VWS V14.00,2013-02-11 07:48:00,
2013-02-11 01:50:00,52.9,14.0,28.23,North,353,0.0,0.0,21,0.00,,,0.00,VWS V14.00,2013-02-11 07:50:00,
2013-02-11 01:53:00,53.1,14.2,28.23,North,353,3.1,3.6,21,0.00,,,0.00,VWS V14.00,2013-02-11 07:53:00,
2013-02-11 01:54:00,53.1,14.2,28.23,North,353,2.2,3.6,21,0.00,,,0.00,VWS V14.00,2013-02-11 07:54:00,
2013-02-11 01:55:00,53.1,14.2,28.23,North,353,0.0,3.6,21,0.00,,,0.00,VWS V14.00,2013-02-11 07:55:00,
2013-02-11 01:58:00,53.1,14.2,28.23,North,353,3.1,3.6,21,0.00,,,0.00,VWS V14.00,2013-02-11 07:58:00,
2013-02-11 01:59:00,53.1,14.2,28.23,North,353,0.0,3.6,21,0.00,,,0.00,VWS V14.00,2013-02-11 07:59:00,
2013-02-11 02:01:00,53.1,14.2,28.23,North,353,0.0,3.6,21,0.00,,,0.00,VWS V14.00,2013-02-11 08:01:00,
2013-02-11 02:04:00,53.1,14.2,28.26,North,353,0.0,3.6,21,0.00,,,0.00,VWS V14.00,2013-02-11 08:04:00,
2013-02-11 02:06:00,53.1,14.2,28.26,North,353,0.0,3.6,21,0.00,,,0.00,VWS V14.00,2013-02-11 08:06:00,
2013-02-11 02:09:00,53.1,14.2,28.26,North,353,0.0,3.6,21,0.00,,,0.00,VWS V14.00,2013-02-11 08:09:00,
2013-02-11 02:10:00,53.1,14.2,28.26,North,353,0.0,3.6,21,0.00,,,0.00,VWS V14.00,2013-02-11 08:10:00,
2013-02-11 02:12:00,52.9,15.1,28.26,North,353,0.0,3.6,22,0.00,,,0.00,VWS V14.00,2013-02-11 08:12:00,
2013-02-11 02:14:00,52.9,15.1,28.26,North,353,0.0,3.6,22,0.00,,,0.00,VWS V14.00,2013-02-11 08:14:00,
2013-02-11 02:16:00,52.9,15.1,28.26,North,353,0.0,0.0,22,0.00,,,0.00,VWS V14.00,2013-02-11 08:16:00,
2013-02-11 02:17:00,52.9,15.1,28.23,North,353,0.0,0.0,22,0.00,,,0.00,VWS V14.00,2013-02-11 08:17:00,
2013-02-11 02:18:00,52.9,15.1,28.23,North,353,0.0,0.0,22,0.00,,,0.00,VWS V14.00,2013-02-11 08:18:00,
2013-02-11 02:19:00,52.7,14.9,28.23,North,353,0.0,0.0,22,0.00,,,0.00,VWS V14.00,2013-02-11 08:19:00,
2013-02-11 02:21:00,52.7,14.9,28.23,North,353,0.0,0.0,22,0.00,,,0.00,VWS V14.00,2013-02-11 08:21:00,
2013-02-11 02:23:00,52.7,14.9,28.23,North,353,0.0,0.0,22,0.00,,,0.00,VWS V14.00,2013-02-11 08:23:00,
2013-02-11 02:25:00,52.7,14.9,28.23,North,353,0.0,0.0,22,0.00,,,0.00,VWS V14.00,2013-02-11 08:25:00,
2013-02-11 02:27:00,52.9,15.1,28.23,North,353,0.0,0.0,22,0.00,,,0.00,VWS V14.00,2013-02-11 08:27:00,
2013-02-11 02:28:00,52.9,15.1,28.23,North,353,0.0,0.0,22,0.00,,,0.00,VWS V14.00,2013-02-11 08:28:00,
2013-02-11 02:29:00,52.9,15.1,28.23,North,353,0.0,0.0,22,0.00,,,0.00,VWS V14.00,2013-02-11 08:29:00,
2013-02-11 02:32:00,53.1,15.2,28.23,North,353,0.0,0.0,22,0.00,,,0.00,VWS V14.00,2013-02-11 08:32:00,
2013-02-11 02:33:00,53.1,15.2,28.26,North,353,0.0,0.0,22,0.00,,,0.00,VWS V14.00,2013-02-11 08:33:00,
2013-02-11 02:34:00,53.1,15.2,28.26,North,353,0.0,0.0,22,0.00,,,0.00,VWS V14.00,2013-02-11 08:34:00,
2013-02-11 02:35:00,53.1,15.2,28.26,North,353,0.0,0.0,22,0.00,,,0.00,VWS V14.00,2013-02-11 08:35:00,
2013-02-11 02:37:00,53.1,15.2,28.26,North,353,0.0,0.0,22,0.00,,,0.00,VWS V14.00,2013-02-11 08:37:00,
2013-02-11 02:39:00,53.2,15.4,28.26,North,353,0.0,0.0,22,0.00,,,0.00,VWS V14.00,2013-02-11 08:39:00,
2013-02-11 02:40:00,53.2,15.4,28.26,North,353,0.0,0.0,22,0.00,,,0.00,VWS V14.00,2013-02-11 08:40:00,
2013-02-11 02:41:00,53.1,15.2,28.26,North,353,0.0,0.0,22,0.00,,,0.00,VWS V14.00,2013-02-11 08:41:00,
2013-02-11 02:43:00,53.1,15.2,28.26,North,353,0.0,0.0,22,0.00,,,0.00,VWS V14.00,2013-02-11 08:43:00,
2013-02-11 02:44:00,53.1,15.2,28.26,North,353,0.0,0.0,22,0.00,,,0.00,VWS V14.00,2013-02-11 08:44:00,
2013-02-11 02:45:00,53.1,15.2,28.26,North,353,0.0,0.0,22,0.00,,,0.00,VWS V14.00,2013-02-11 08:45:00,
2013-02-11 02:47:00,53.1,15.2,28.26,North,353,0.0,0.0,22,0.00,,,0.00,VWS V14.00,2013-02-11 08:47:00,
2013-02-11 02:48:00,53.2,15.4,28.26,North,353,0.0,0.0,22,0.00,,,0.00,VWS V14.00,2013-02-11 08:48:00,
2013-02-11 02:50:00,53.1,15.2,28.26,North,353,0.0,0.0,22,0.00,,,0.00,VWS V14.00,2013-02-11 08:50:00,
2013-02-11 02:53:00,52.9,15.1,28.26,North,353,0.0,0.0,22,0.00,,,0.00,VWS V14.00,2013-02-11 08:53:00,
2013-02-11 02:54:00,52.9,15.1,28.26,North,353,0.0,0.0,22,0.00,,,0.00,VWS V14.00,2013-02-11 08:54:00,
2013-02-11 02:55:00,52.9,15.1,28.26,North,353,0.0,0.0,22,0.00,,,0.00,VWS V14.00,2013-02-11 08:55:00,
2013-02-11 02:56:00,52.7,14.9,28.26,North,353,0.0,0.0,22,0.00,,,0.00,VWS V14.00,2013-02-11 08:56:00,
2013-02-11 02:58:00,52.7,14.9,28.26,North,353,0.0,0.0,22,0.00,,,0.00,VWS V14.00,2013-02-11 08:58:00,
2013-02-11 02:59:00,52.5,14.8,28.26,North,353,0.0,0.0,22,0.00,,,0.00,VWS V14.00,2013-02-11 08:59:00,
2013-02-11 03:00:00,52.5,14.8,28.26,North,353,0.0,0.0,22,0.00,,,0.00,VWS V14.00,2013-02-11 09:00:00,
2013-02-11 03:02:00,52.5,14.8,28.26,North,353,0.0,0.0,22,0.00,,,0.00,VWS V14.00,2013-02-11 09:02:00,
2013-02-11 03:05:00,52.5,13.7,28.23,North,353,0.0,0.0,21,0.00,,,0.00,VWS V14.00,2013-02-11 09:05:00,
2013-02-11 03:06:00,52.3,13.6,28.23,North,353,0.0,0.0,21,0.00,,,0.00,VWS V14.00,2013-02-11 09:06:00,
2013-02-11 03:08:00,52.2,13.4,28.23,North,353,3.1,3.1,21,0.00,,,0.00,VWS V14.00,2013-02-11 09:08:00,
2013-02-11 03:11:00,52.0,13.3,28.23,North,353,0.0,3.1,21,0.00,,,0.00,VWS V14.00,2013-02-11 09:11:00,
2013-02-11 03:12:00,52.0,13.3,28.23,North,353,0.0,3.1,21,0.00,,,0.00,VWS V14.00,2013-02-11 09:12:00,
2013-02-11 03:14:00,51.8,13.1,28.23,North,353,0.0,3.1,21,0.00,,,0.00,VWS V14.00,2013-02-11 09:14:00,
2013-02-11 03:16:00,51.6,14.0,28.23,North,353,0.0,0.0,22,0.00,,,0.00,VWS V14.00,2013-02-11 09:16:00,
2013-02-11 03:17:00,51.6,14.0,28.23,North,353,0.0,0.0,22,0.00,,,0.00,VWS V14.00,2013-02-11 09:17:00,
2013-02-11 03:21:00,51.8,14.2,28.23,North,353,0.0,0.0,22,0.00,,,0.00,VWS V14.00,2013-02-11 09:21:00,
2013-02-11 03:22:00,51.8,14.2,28.23,North,353,0.0,0.0,22,0.00,,,0.00,VWS V14.00,2013-02-11 09:22:00,
2013-02-11 03:27:00,52.2,14.5,28.23,North,353,0.0,0.0,22,0.00,,,0.00,VWS V14.00,2013-02-11 09:27:00,
2013-02-11 03:28:00,52.2,13.4,28.23,North,353,0.0,0.0,21,0.00,,,0.00,VWS V14.00,2013-02-11 09:28:00,
2013-02-11 03:32:00,52.5,13.7,28.23,North,353,0.0,0.0,21,0.00,,,0.00,VWS V14.00,2013-02-11 09:32:00,
2013-02-11 03:33:00,52.5,13.7,28.23,North,353,0.0,0.0,21,0.00,,,0.00,VWS V14.00,2013-02-11 09:33:00,
2013-02-11 03:35:00,52.5,13.7,28.23,North,353,0.0,0.0,21,0.00,,,0.00,VWS V14.00,2013-02-11 09:35:00,
2013-02-11 03:39:00,52.7,13.9,28.23,North,353,0.0,0.0,21,0.00,,,0.00,VWS V14.00,2013-02-11 09:39:00,
2013-02-11 03:41:00,52.9,14.0,28.23,North,353,0.0,0.0,21,0.00,,,0.00,VWS V14.00,2013-02-11 09:41:00,
2013-02-11 03:42:00,52.9,14.0,28.23,North,353,0.0,0.0,21,0.00,,,0.00,VWS V14.00,2013-02-11 09:42:00,
2013-02-11 03:44:00,52.9,14.0,28.23,North,353,0.0,0.0,21,0.00,,,0.00,VWS V14.00,2013-02-11 09:44:00,
2013-02-11 03:47:00,52.7,13.9,28.26,North,353,0.0,0.0,21,0.00,,,0.00,VWS V14.00,2013-02-11 09:47:00,
2013-02-11 03:49:00,52.7,13.9,28.26,North,353,0.0,0.0,21,0.00,,,0.00,VWS V14.00,2013-02-11 09:49:00,
2013-02-11 03:52:00,52.9,14.0,28.26,North,353,0.0,0.0,21,0.00,,,0.00,VWS V14.00,2013-02-11 09:52:00,
2013-02-11 03:54:00,52.7,13.9,28.26,North,353,0.0,0.0,21,0.00,,,0.00,VWS V14.00,2013-02-11 09:54:00,
2013-02-11 03:55:00,52.7,13.9,28.26,North,353,0.0,0.0,21,0.00,,,0.00,VWS V14.00,2013-02-11 09:55:00,
2013-02-11 03:57:00,52.7,13.9,28.26,North,353,0.0,0.0,21,0.00,,,0.00,VWS V14.00,2013-02-11 09:57:00,
2013-02-11 03:58:00,52.7,13.9,28.26,North,353,0.0,0.0,21,0.00,,,0.00,VWS V14.00,2013-02-11 09:58:00,
2013-02-11 04:00:00,52.7,14.9,28.26,North,353,0.0,0.0,22,0.00,,,0.00,VWS V14.00,2013-02-11 10:00:00,
2013-02-11 04:02:00,52.7,14.9,28.26,North,353,0.0,0.0,22,0.00,,,0.00,VWS V14.00,2013-02-11 10:02:00,
2013-02-11 04:03:00,53.1,15.2,28.23,North,353,0.0,2.7,22,0.00,,,0.00,VWS V14.00,2013-02-11 10:03:00,
2013-02-11 04:05:00,52.9,15.1,28.23,North,353,0.0,2.7,22,0.00,,,0.00,VWS V14.00,2013-02-11 10:05:00,
2013-02-11 04:08:00,52.7,14.9,28.23,North,353,0.0,2.7,22,0.00,,,0.00,VWS V14.00,2013-02-11 10:08:00,
2013-02-11 04:09:00,52.5,14.8,28.23,North,353,0.0,2.7,22,0.00,,,0.00,VWS V14.00,2013-02-11 10:09:00,
2013-02-11 04:10:00,52.5,14.8,28.23,North,353,0.0,2.7,22,0.00,,,0.00,VWS V14.00,2013-02-11 10:10:00,
2013-02-11 04:11:00,52.5,14.8,28.23,North,353,0.0,2.7,22,0.00,,,0.00,VWS V14.00,2013-02-11 10:11:00,
2013-02-11 04:13:00,52.3,14.6,28.23,North,353,0.0,2.7,22,0.00,,,0.00,VWS V14.00,2013-02-11 10:13:00,
2013-02-11 04:14:00,52.3,14.6,28.23,North,353,0.0,2.7,22,0.00,,,0.00,VWS V14.00,2013-02-11 10:14:00,
2013-02-11 04:16:00,52.2,14.5,28.23,North,353,0.0,0.0,22,0.00,,,0.00,VWS V14.00,2013-02-11 10:16:00,
2013-02-11 04:17:00,52.2,14.5,28.23,North,353,0.0,0.0,22,0.00,,,0.00,VWS V14.00,2013-02-11 10:17:00,
2013-02-11 04:19:00,51.8,13.1,28.20,North,353,0.0,0.0,21,0.00,,,0.00,VWS V14.00,2013-02-11 10:19:00,
2013-02-11 04:21:00,52.0,13.3,28.20,North,353,0.0,0.0,21,0.00,,,0.00,VWS V14.00,2013-02-11 10:21:00,
2013-02-11 04:22:00,51.8,13.1,28.20,North,353,0.0,0.0,21,0.00,,,0.00,VWS V14.00,2013-02-11 10:22:00,
2013-02-11 04:25:00,51.6,14.0,28.20,North,353,0.0,0.0,22,0.00,,,0.00,VWS V14.00,2013-02-11 10:25:00,
2013-02-11 04:26:00,51.6,14.0,28.20,North,353,0.0,0.0,22,0.00,,,0.00,VWS V14.00,2013-02-11 10:26:00,
2013-02-11 04:27:00,51.6,14.0,28.20,North,353,0.0,0.0,22,0.00,,,0.00,VWS V14.00,2013-02-11 10:27:00,
2013-02-11 04:30:00,51.1,13.6,28.20,North,353,0.0,0.0,22,0.00,,,0.00,VWS V14.00,2013-02-11 10:30:00,
2013-02-11 04:31:00,51.1,13.6,28.20,North,353,0.0,0.0,22,0.00,,,0.00,VWS V14.00,2013-02-11 10:31:00,
2013-02-11 04:32:00,51.1,13.6,28.23,North,353,0.0,0.0,22,0.00,,,0.00,VWS V14.00,2013-02-11 10:32:00,
2013-02-11 04:33:00,50.9,13.4,28.23,North,353,0.0,0.0,22,0.00,,,0.00,VWS V14.00,2013-02-11 10:33:00,
2013-02-11 04:36:00,50.7,13.3,28.23,North,353,0.0,0.0,22,0.00,,,0.00,VWS V14.00,2013-02-11 10:36:00,
2013-02-11 04:37:00,50.5,13.1,28.23,North,353,0.0,0.0,22,0.00,,,0.00,VWS V14.00,2013-02-11 10:37:00,
2013-02-11 04:38:00,50.5,13.1,28.23,North,353,0.0,0.0,22,0.00,,,0.00,VWS V14.00,2013-02-11 10:38:00,
2013-02-11 04:42:00,50.2,12.8,28.23,North,353,0.0,0.0,22,0.00,,,0.00,VWS V14.00,2013-02-11 10:42:00,
2013-02-11 04:45:00,50.4,13.0,28.23,North,353,0.0,0.0,22,0.00,,,0.00,VWS V14.00,2013-02-11 10:45:00,
2013-02-11 04:47:00,50.4,13.0,28.23,North,353,0.0,0.0,22,0.00,,,0.00,VWS V14.00,2013-02-11 10:47:00,
2013-02-11 04:48:00,50.4,13.0,28.23,North,353,0.0,0.0,22,0.00,,,0.00,VWS V14.00,2013-02-11 10:48:00,
2013-02-11 04:51:00,50.2,12.8,28.23,North,353,0.0,0.0,22,0.00,,,0.00,VWS V14.00,2013-02-11 10:51:00,
2013-02-11 04:52:00,50.0,12.7,28.23,North,353,0.0,0.0,22,0.00,,,0.00,VWS V14.00,2013-02-11 10:52:00,
2013-02-11 04:54:00,49.8,13.5,28.23,North,353,0.0,0.0,23,0.00,,,0.00,VWS V14.00,2013-02-11 10:54:00,
2013-02-11 04:57:00,49.8,13.5,28.23,North,353,0.0,0.0,23,0.00,,,0.00,VWS V14.00,2013-02-11 10:57:00,
2013-02-11 04:58:00,49.8,13.5,28.23,North,353,0.0,0.0,23,0.00,,,0.00,VWS V14.00,2013-02-11 10:58:00,
2013-02-11 04:59:00,49.8,13.5,28.23,North,353,0.0,0.0,23,0.00,,,0.00,VWS V14.00,2013-02-11 10:59:00,
2013-02-11 05:03:00,50.0,12.7,28.23,North,353,0.0,0.0,22,0.00,,,0.00,VWS V14.00,2013-02-11 11:03:00,
2013-02-11 05:05:00,50.0,12.7,28.23,North,353,0.0,0.0,22,0.00,,,0.00,VWS V14.00,2013-02-11 11:05:00,
2013-02-11 05:08:00,50.4,13.0,28.23,North,353,0.0,0.0,22,0.00,,,0.00,VWS V14.00,2013-02-11 11:08:00,
2013-02-11 05:11:00,50.2,12.8,28.23,North,353,0.0,0.0,22,0.00,,,0.00,VWS V14.00,2013-02-11 11:11:00,
2013-02-11 05:14:00,50.2,12.8,28.23,North,353,0.0,0.0,22,0.00,,,0.00,VWS V14.00,2013-02-11 11:14:00,
2013-02-11 05:16:00,50.4,13.0,28.23,North,353,0.0,0.0,22,0.00,,,0.00,VWS V14.00,2013-02-11 11:16:00,
2013-02-11 05:19:00,50.4,13.0,28.23,North,353,0.0,0.0,22,0.00,,,0.00,VWS V14.00,2013-02-11 11:19:00,
2013-02-11 05:20:00,50.5,13.1,28.23,North,353,0.0,0.0,22,0.00,,,0.00,VWS V14.00,2013-02-11 11:20:00,
2013-02-11 05:21:00,50.7,13.3,28.23,North,353,0.0,0.0,22,0.00,,,0.00,VWS V14.00,2013-02-11 11:21:00,
2013-02-11 05:22:00,50.7,13.3,28.23,North,353,0.0,0.0,22,0.00,,,0.00,VWS V14.00,2013-02-11 11:22:00,
2013-02-11 05:24:00,50.9,13.4,28.23,North,353,0.0,0.0,22,0.00,,,0.00,VWS V14.00,2013-02-11 11:24:00,
2013-02-11 05:25:00,50.9,13.4,28.23,North,353,0.0,0.0,22,0.00,,,0.00,VWS V14.00,2013-02-11 11:25:00,
2013-02-11 05:26:00,51.1,13.6,28.23,North,353,0.0,0.0,22,0.00,,,0.00,VWS V14.00,2013-02-11 11:26:00,
2013-02-11 05:27:00,51.1,13.6,28.23,North,353,0.0,0.0,22,0.00,,,0.00,VWS V14.00,2013-02-11 11:27:00,
2013-02-11 05:29:00,51.3,13.7,28.23,North,353,0.0,0.0,22,0.00,,,0.00,VWS V14.00,2013-02-11 11:29:00,
2013-02-11 05:31:00,51.3,13.7,28.23,North,353,0.0,0.0,22,0.00,,,0.00,VWS V14.00,2013-02-11 11:31:00,
2013-02-11 05:32:00,51.1,13.6,28.23,North,353,0.0,0.0,22,0.00,,,0.00,VWS V14.00,2013-02-11 11:32:00,
2013-02-11 05:35:00,51.1,13.6,28.23,North,353,0.0,0.0,22,0.00,,,0.00,VWS V14.00,2013-02-11 11:35:00,
2013-02-11 05:36:00,51.1,13.6,28.23,North,353,0.0,0.0,22,0.00,,,0.00,VWS V14.00,2013-02-11 11:36:00,
2013-02-11 05:37:00,50.9,13.4,28.23,North,353,0.0,0.0,22,0.00,,,0.00,VWS V14.00,2013-02-11 11:37:00,
2013-02-11 05:38:00,50.9,13.4,28.23,North,353,0.0,0.0,22,0.00,,,0.00,VWS V14.00,2013-02-11 11:38:00,
2013-02-11 05:40:00,50.9,13.4,28.23,North,353,0.0,0.0,22,0.00,,,0.00,VWS V14.00,2013-02-11 11:40:00,
2013-02-11 05:41:00,50.7,13.3,28.23,North,353,0.0,0.0,22,0.00,,,0.00,VWS V14.00,2013-02-11 11:41:00,
2013-02-11 05:42:00,50.9,13.4,28.23,North,353,0.0,0.0,22,0.00,,,0.00,VWS V14.00,2013-02-11 11:42:00,
2013-02-11 05:45:00,50.9,13.4,28.23,North,353,0.0,0.0,22,0.00,,,0.00,VWS V14.00,2013-02-11 11:45:00,
2013-02-11 05:47:00,51.3,13.7,28.23,North,353,0.0,0.0,22,0.00,,,0.00,VWS V14.00,2013-02-11 11:47:00,
2013-02-11 05:48:00,51.4,13.9,28.23,North,353,0.0,0.0,22,0.00,,,0.00,VWS V14.00,2013-02-11 11:48:00,
2013-02-11 05:51:00,51.6,14.0,28.23,NNE,14,0.0,4.0,22,0.00,,,0.00,VWS V14.00,2013-02-11 11:51:00,
2013-02-11 05:52:00,51.8,13.1,28.23,NNE,14,0.0,4.0,21,0.00,,,0.00,VWS V14.00,2013-02-11 11:52:00,
2013-02-11 05:53:00,51.8,13.1,28.23,NNE,14,0.0,4.0,21,0.00,,,0.00,VWS V14.00,2013-02-11 11:53:00,
2013-02-11 05:57:00,52.0,13.3,28.23,NNE,14,2.2,4.0,21,0.00,,,0.00,VWS V14.00,2013-02-11 11:57:00,
2013-02-11 05:58:00,52.2,13.4,28.23,NNE,14,2.2,4.0,21,0.00,,,0.00,VWS V14.00,2013-02-11 11:58:00,
2013-02-11 05:59:00,52.2,13.4,28.23,NNE,14,0.0,4.0,21,0.00,,,0.00,VWS V14.00,2013-02-11 11:59:00,
2013-02-11 06:03:00,52.2,13.4,28.26,NNE,14,0.0,4.0,21,0.00,,,0.00,VWS V14.00,2013-02-11 12:03:00,
2013-02-11 06:04:00,52.3,13.6,28.26,NNE,14,0.0,4.0,21,0.00,,,0.00,VWS V14.00,2013-02-11 12:04:00,
2013-02-11 06:08:00,52.7,13.9,28.26,NNE,13,0.0,4.0,21,0.00,,,0.00,VWS V14.00,2013-02-11 12:08:00,
2013-02-11 06:09:00,52.7,13.9,28.26,NNE,13,0.0,4.0,21,0.00,,,0.00,VWS V14.00,2013-02-11 12:09:00,
2013-02-11 06:10:00,52.7,13.9,28.26,NNE,13,0.0,4.0,21,0.00,,,0.00,VWS V14.00,2013-02-11 12:10:00,
2013-02-11 06:13:00,52.9,14.0,28.26,NNE,13,0.0,4.0,21,0.00,,,0.00,VWS V14.00,2013-02-11 12:13:00,
2013-02-11 06:14:00,52.9,14.0,28.26,NNE,13,0.0,4.0,21,0.00,,,0.00,VWS V14.00,2013-02-11 12:14:00,
2013-02-11 06:15:00,52.9,14.0,28.26,NNE,13,0.0,4.0,21,0.00,,,0.00,VWS V14.00,2013-02-11 12:15:00,
2013-02-11 06:17:00,53.1,14.2,28.23,NNE,13,0.0,0.0,21,0.00,,,0.00,VWS V14.00,2013-02-11 12:17:00,
2013-02-11 06:18:00,53.1,14.2,28.23,NNE,13,0.0,0.0,21,0.00,,,0.00,VWS V14.00,2013-02-11 12:18:00,
2013-02-11 06:19:00,53.1,14.2,28.23,NNE,13,0.0,0.0,21,0.00,,,0.00,VWS V14.00,2013-02-11 12:19:00,
2013-02-11 06:20:00,53.1,14.2,28.23,NNE,13,0.0,0.0,21,0.00,,,0.00,VWS V14.00,2013-02-11 12:20:00,
2013-02-11 06:22:00,53.1,14.2,28.23,NNE,13,0.0,0.0,21,0.00,,,0.00,VWS V14.00,2013-02-11 12:22:00,
2013-02-11 06:23:00,53.1,14.2,28.23,NNE,13,0.0,0.0,21,0.00,,,0.00,VWS V14.00,2013-02-11 12:23:00,
2013-02-11 06:24:00,53.1,14.2,28.23,NNE,13,0.0,0.0,21,0.00,,,0.00,VWS V14.00,2013-02-11 12:24:00,
2013-02-11 06:25:00,53.1,14.2,28.23,NNE,13,0.0,0.0,21,0.00,,,0.00,VWS V14.00,2013-02-11 12:25:00,
2013-02-11 06:27:00,53.4,14.5,28.23,NNE,24,2.2,5.4,21,0.00,,,0.00,VWS V14.00,2013-02-11 12:27:00,
2013-02-11 06:28:00,53.4,14.5,28.23,NNE,24,0.0,5.4,21,0.00,,,0.00,VWS V14.00,2013-02-11 12:28:00,
2013-02-11 06:30:00,53.4,14.5,28.23,NNE,24,0.0,5.4,21,0.00,,,0.00,VWS V14.00,2013-02-11 12:30:00,
2013-02-11 06:31:00,53.4,14.5,28.23,NNE,24,0.0,0.0,21,0.00,,,0.00,VWS V14.00,2013-02-11 12:31:00,
2013-02-11 06:32:00,53.4,14.5,28.26,NNE,24,0.0,0.0,21,0.00,,,0.00,VWS V14.00,2013-02-11 12:32:00,
2013-02-11 06:35:00,53.4,14.5,28.26,NNE,24,0.0,0.0,21,0.00,,,0.00,VWS V14.00,2013-02-11 12:35:00,
2013-02-11 06:36:00,53.4,14.5,28.26,NNE,24,0.0,0.0,21,0.00,,,0.00,VWS V14.00,2013-02-11 12:36:00,
2013-02-11 06:38:00,53.4,14.5,28.26,NNE,24,0.0,0.0,21,0.00,,,0.00,VWS V14.00,2013-02-11 12:38:00,
2013-02-11 06:40:00,53.4,14.5,28.26,NNE,24,0.0,0.0,21,0.00,,,0.00,VWS V14.00,2013-02-11 12:40:00,
2013-02-11 06:41:00,53.4,14.5,28.26,NNE,24,0.0,0.0,21,0.00,,,0.00,VWS V14.00,2013-02-11 12:41:00,
2013-02-11 06:42:00,53.4,14.5,28.26,NNE,24,0.0,0.0,21,0.00,,,0.00,VWS V14.00,2013-02-11 12:42:00,
2013-02-11 06:44:00,53.4,14.5,28.26,NNE,24,0.0,0.0,21,0.00,,,0.00,VWS V14.00,2013-02-11 12:44:00,
2013-02-11 06:45:00,53.4,14.5,28.26,NNE,24,0.0,0.0,21,0.00,,,0.00,VWS V14.00,2013-02-11 12:45:00,
2013-02-11 06:47:00,53.4,14.5,28.26,NNE,24,0.0,0.0,21,0.00,,,0.00,VWS V14.00,2013-02-11 12:47:00,
2013-02-11 06:51:00,53.4,14.5,28.26,NNE,24,0.0,0.0,21,0.00,,,0.00,VWS V14.00,2013-02-11 12:51:00,
2013-02-11 06:52:00,53.4,14.5,28.26,NNE,24,0.0,0.0,21,0.00,,,0.00,VWS V14.00,2013-02-11 12:52:00,
2013-02-11 06:53:00,53.6,14.6,28.26,NNE,24,0.0,0.0,21,0.00,,,0.00,VWS V14.00,2013-02-11 12:53:00,
2013-02-11 06:57:00,53.8,14.8,28.26,NNE,24,0.0,0.0,21,0.00,,,0.00,VWS V14.00,2013-02-11 12:57:00,
2013-02-11 06:58:00,53.6,14.6,28.26,NNE,24,0.0,0.0,21,0.00,,,0.00,VWS V14.00,2013-02-11 12:58:00,
2013-02-11 06:59:00,53.6,14.6,28.26,NNE,24,0.0,0.0,21,0.00,,,0.00,VWS V14.00,2013-02-11 12:59:00,
2013-02-11 07:02:00,53.6,14.6,28.26,NNE,24,0.0,0.0,21,0.00,,,0.00,VWS V14.00,2013-02-11 13:02:00,
2013-02-11 07:03:00,53.4,14.5,28.26,NNE,24,0.0,0.0,21,0.00,,,0.00,VWS V14.00,2013-02-11 13:03:00,
2013-02-11 07:05:00,53.1,14.2,28.26,NNE,24,0.0,0.0,21,0.00,,,0.00,VWS V14.00,2013-02-11 13:05:00,
2013-02-11 07:07:00,52.9,14.0,28.26,NNE,24,0.0,0.0,21,0.00,,,0.00,VWS V14.00,2013-02-11 13:07:00,
2013-02-11 07:08:00,52.9,14.0,28.26,NNE,24,0.0,0.0,21,0.00,,,0.00,VWS V14.00,2013-02-11 13:08:00,
2013-02-11 07:10:00,52.7,13.9,28.26,NNE,24,0.0,0.0,21,0.00,,,0.00,VWS V14.00,2013-02-11 13:10:00,
2013-02-11 07:13:00,52.5,13.7,28.26,NNE,24,0.0,0.0,21,0.00,,,0.00,VWS V14.00,2013-02-11 13:13:00,
2013-02-11 07:14:00,52.5,13.7,28.26,NNE,24,0.0,0.0,21,0.00,,,0.00,VWS V14.00,2013-02-11 13:14:00,
2013-02-11 07:16:00,52.7,13.9,28.26,NNE,24,0.0,0.0,21,0.00,,,0.00,VWS V14.00,2013-02-11 13:16:00,
2013-02-11 07:18:00,52.7,13.9,28.26,NNE,24,0.0,0.0,21,0.00,,,0.00,VWS V14.00,2013-02-11 13:18:00,
2013-02-11 07:19:00,52.7,13.9,28.26,NNE,24,0.0,0.0,21,0.00,,,0.00,VWS V14.00,2013-02-11 13:19:00,
2013-02-11 07:21:00,52.7,14.9,28.26,NNE,24,0.0,0.0,22,0.00,,,0.00,VWS V14.00,2013-02-11 13:21:00,
2013-02-11 07:23:00,52.7,14.9,28.26,NNE,24,0.0,0.0,22,0.00,,,0.00,VWS V14.00,2013-02-11 13:23:00,
2013-02-11 07:24:00,52.7,13.9,28.26,NNE,24,0.0,0.0,21,0.00,,,0.00,VWS V14.00,2013-02-11 13:24:00,
2013-02-11 07:26:00,52.7,14.9,28.26,NNE,24,0.0,0.0,22,0.00,,,0.00,VWS V14.00,2013-02-11 13:26:00,
2013-02-11 07:29:00,52.7,14.9,28.26,NNE,24,0.0,0.0,22,0.00,,,0.00,VWS V14.00,2013-02-11 13:29:00,
2013-02-11 07:32:00,52.7,13.9,28.26,NNE,24,0.0,0.0,21,0.00,,,0.00,VWS V14.00,2013-02-11 13:32:00,
2013-02-11 07:33:00,52.7,13.9,28.26,NNE,24,0.0,0.0,21,0.00,,,0.00,VWS V14.00,2013-02-11 13:33:00,
2013-02-11 07:34:00,52.9,14.0,28.26,NNE,24,0.0,0.0,21,0.00,,,0.00,VWS V14.00,2013-02-11 13:34:00,
2013-02-11 07:36:00,52.9,14.0,28.26,NNE,24,0.0,0.0,21,0.00,,,0.00,VWS V14.00,2013-02-11 13:36:00,
2013-02-11 07:38:00,53.1,14.2,28.26,NNE,24,0.0,0.0,21,0.00,,,0.00,VWS V14.00,2013-02-11 13:38:00,
2013-02-11 07:40:00,53.1,14.2,28.26,NNE,24,0.0,0.0,21,0.00,,,0.00,VWS V14.00,2013-02-11 13:40:00,
2013-02-11 07:42:00,53.1,14.2,28.26,NNE,24,0.0,0.0,21,0.00,,,0.00,VWS V14.00,2013-02-11 13:42:00,
2013-02-11 07:43:00,53.1,14.2,28.26,NNE,24,0.0,0.0,21,0.00,,,0.00,VWS V14.00,2013-02-11 13:43:00,
2013-02-11 07:44:00,53.2,14.3,28.26,NNE,24,0.0,0.0,21,0.00,,,0.00,VWS V14.00,2013-02-11 13:44:00,
2013-02-11 07:46:00,53.2,14.3,28.26,NNE,24,0.0,0.0,21,0.00,,,0.00,VWS V14.00,2013-02-11 13:46:00,
2013-02-11 07:47:00,53.4,14.5,28.26,NNE,24,0.0,0.0,21,0.00,,,0.00,VWS V14.00,2013-02-11 13:47:00,
2013-02-11 07:48:00,53.4,14.5,28.26,NNE,24,0.0,0.0,21,0.00,,,0.00,VWS V14.00,2013-02-11 13:48:00,
2013-02-11 07:49:00,53.4,14.5,28.26,NNE,24,0.0,0.0,21,0.00,,,0.00,VWS V14.00,2013-02-11 13:49:00,
2013-02-11 07:51:00,53.6,14.6,28.26,NNE,29,2.7,3.6,21,0.00,,,0.00,VWS V14.00,2013-02-11 13:51:00,
2013-02-11 07:52:00,53.6,14.6,28.26,NE,39,2.2,3.6,21,0.00,,,0.00,VWS V14.00,2013-02-11 13:52:00,
2013-02-11 07:53:00,53.8,14.8,28.26,NE,39,0.0,3.6,21,0.00,,,0.00,VWS V14.00,2013-02-11 13:53:00,
2013-02-11 07:54:00,53.8,14.8,28.26,NE,39,0.0,3.6,21,0.00,,,0.00,VWS V14.00,2013-02-11 13:54:00,
2013-02-11 07:59:00,54.1,15.1,28.26,NE,46,2.2,4.0,21,0.00,,,0.00,VWS V14.00,2013-02-11 13:59:00,
2013-02-11 08:00:00,54.1,15.1,28.26,NE,46,0.0,4.0,21,0.00,,,0.00,VWS V14.00,2013-02-11 14:00:00,
2013-02-11 08:01:00,54.1,15.1,28.26,NE,46,0.0,4.0,21,0.00,,,0.00,VWS V14.00,2013-02-11 14:01:00,
2013-02-11 08:05:00,54.5,15.4,28.26,NE,46,0.0,4.0,21,0.00,,,0.00,VWS V14.00,2013-02-11 14:05:00,
2013-02-11 08:06:00,54.5,15.4,28.26,NE,46,0.0,4.0,21,0.00,,,0.00,VWS V14.00,2013-02-11 14:06:00,
2013-02-11 08:11:00,54.5,15.4,28.26,NE,47,0.0,4.0,21,0.00,,,0.00,VWS V14.00,2013-02-11 14:11:00,
2013-02-11 08:12:00,54.5,15.4,28.26,NE,46,0.0,4.0,21,0.00,,,0.00,VWS V14.00,2013-02-11 14:12:00,
2013-02-11 08:16:00,54.7,15.5,28.26,NE,47,0.0,0.0,21,0.00,,,0.00,VWS V14.00,2013-02-11 14:16:00,
2013-02-11 08:17:00,54.7,15.5,28.26,NE,47,0.0,0.0,21,0.00,,,0.00,VWS V14.00,2013-02-11 14:17:00,
2013-02-11 08:18:00,54.9,15.7,28.26,NE,47,0.0,0.0,21,0.00,,,0.00,VWS V14.00,2013-02-11 14:18:00,
2013-02-11 08:21:00,55.2,16.0,28.26,North,357,2.7,3.1,21,0.00,,,0.00,VWS V14.00,2013-02-11 14:21:00,
2013-02-11 08:22:00,55.4,15.0,28.26,North,357,4.9,4.9,20,0.00,,,0.00,VWS V14.00,2013-02-11 14:22:00,
2013-02-11 08:23:00,55.4,15.0,28.26,North,353,5.4,5.4,20,0.00,,,0.00,VWS V14.00,2013-02-11 14:23:00,
2013-02-11 08:27:00,55.8,15.3,28.26,North,353,3.1,5.4,20,0.00,,,0.00,VWS V14.00,2013-02-11 14:27:00,
2013-02-11 08:28:00,55.9,15.5,28.26,North,353,0.0,5.4,20,0.00,,,0.00,VWS V14.00,2013-02-11 14:28:00,
2013-02-11 08:29:00,55.9,15.5,28.26,North,353,0.0,5.4,20,0.00,,,0.00,VWS V14.00,2013-02-11 14:29:00,
2013-02-11 08:32:00,56.1,15.6,28.26,North,353,0.0,3.6,20,0.00,,,0.00,VWS V14.00,2013-02-11 14:32:00,
2013-02-11 08:33:00,56.1,15.6,28.26,North,353,0.0,3.6,20,0.00,,,0.00,VWS V14.00,2013-02-11 14:33:00,
2013-02-11 08:34:00,56.1,15.6,28.26,North,353,0.0,3.6,20,0.00,,,0.00,VWS V14.00,2013-02-11 14:34:00,
2013-02-11 08:36:00,56.1,15.6,28.26,North,353,0.0,3.6,20,0.00,,,0.00,VWS V14.00,2013-02-11 14:36:00,
2013-02-11 08:38:00,56.1,15.6,28.26,North,353,0.0,3.6,20,0.00,,,0.00,VWS V14.00,2013-02-11 14:38:00,
2013-02-11 08:39:00,56.3,15.8,28.26,North,353,0.0,3.6,20,0.00,,,0.00,VWS V14.00,2013-02-11 14:39:00,
2013-02-11 08:41:00,56.1,15.6,28.26,North,353,0.0,3.6,20,0.00,,,0.00,VWS V14.00,2013-02-11 14:41:00,
2013-02-11 08:44:00,56.1,15.6,28.26,North,353,0.0,3.6,20,0.00,,,0.00,VWS V14.00,2013-02-11 14:44:00,
2013-02-11 08:45:00,56.1,15.6,28.26,North,353,0.0,3.6,20,0.00,,,0.00,VWS V14.00,2013-02-11 14:45:00,
2013-02-11 08:48:00,56.1,15.6,28.26,North,353,0.0,0.0,20,0.00,,,0.00,VWS V14.00,2013-02-11 14:48:00,
2013-02-11 08:49:00,56.1,15.6,28.26,North,353,0.0,0.0,20,0.00,,,0.00,VWS V14.00,2013-02-11 14:49:00,
2013-02-11 08:50:00,56.1,15.6,28.26,North,353,0.0,0.0,20,0.00,,,0.00,VWS V14.00,2013-02-11 14:50:00,
2013-02-11 08:52:00,56.1,15.6,28.26,North,353,0.0,0.0,20,0.00,,,0.00,VWS V14.00,2013-02-11 14:52:00,
2013-02-11 08:54:00,56.3,15.8,28.26,North,353,0.0,0.0,20,0.00,,,0.00,VWS V14.00,2013-02-11 14:54:00,
2013-02-11 08:55:00,56.3,15.8,28.26,North,353,0.0,0.0,20,0.00,,,0.00,VWS V14.00,2013-02-11 14:55:00,
2013-02-11 08:58:00,56.3,15.8,28.26,North,353,0.0,0.0,20,0.00,,,0.00,VWS V14.00,2013-02-11 14:58:00,
2013-02-11 08:59:00,56.3,15.8,28.26,North,353,0.0,0.0,20,0.00,,,0.00,VWS V14.00,2013-02-11 14:59:00,
2013-02-11 09:00:00,56.3,15.8,28.26,North,353,0.0,0.0,20,0.00,,,0.00,VWS V14.00,2013-02-11 15:00:00,
2013-02-11 09:01:00,56.3,15.8,28.26,North,353,0.0,0.0,20,0.00,,,0.00,VWS V14.00,2013-02-11 15:01:00,
2013-02-11 09:03:00,56.3,15.8,28.26,North,353,0.0,0.0,20,0.00,,,0.00,VWS V14.00,2013-02-11 15:03:00,
2013-02-11 09:05:00,56.5,15.9,28.26,North,353,0.0,0.0,20,0.00,,,0.00,VWS V14.00,2013-02-11 15:05:00,
2013-02-11 09:06:00,56.5,15.9,28.26,North,353,0.0,0.0,20,0.00,,,0.00,VWS V14.00,2013-02-11 15:06:00,
2013-02-11 09:09:00,56.7,16.1,28.26,North,353,0.0,0.0,20,0.00,,,0.00,VWS V14.00,2013-02-11 15:09:00,
2013-02-11 09:10:00,56.7,16.1,28.26,North,353,0.0,0.0,20,0.00,,,0.00,VWS V14.00,2013-02-11 15:10:00,
2013-02-11 09:11:00,56.7,16.1,28.26,North,353,0.0,0.0,20,0.00,,,0.00,VWS V14.00,2013-02-11 15:11:00,
2013-02-11 09:12:00,56.7,16.1,28.26,North,353,0.0,0.0,20,0.00,,,0.00,VWS V14.00,2013-02-11 15:12:00,
2013-02-11 09:14:00,56.8,16.2,28.26,North,353,0.0,0.0,20,0.00,,,0.00,VWS V14.00,2013-02-11 15:14:00,
2013-02-11 09:15:00,56.8,16.2,28.26,North,353,0.0,0.0,20,0.00,,,0.00,VWS V14.00,2013-02-11 15:15:00,
2013-02-11 09:16:00,57.0,16.4,28.26,North,353,0.0,0.0,20,0.00,,,0.00,VWS V14.00,2013-02-11 15:16:00,
2013-02-11 09:17:00,57.2,16.5,28.26,North,353,0.0,0.0,20,0.00,,,0.00,VWS V14.00,2013-02-11 15:17:00,
2013-02-11 09:20:00,57.6,16.8,28.26,North,353,0.0,0.0,20,0.00,,,0.00,VWS V14.00,2013-02-11 15:20:00,
2013-02-11 09:23:00,57.7,17.0,28.26,North,353,0.0,0.0,20,0.00,,,0.00,VWS V14.00,2013-02-11 15:23:00,
2013-02-11 09:26:00,58.1,17.3,28.26,North,353,0.0,0.0,20,0.00,,,0.00,VWS V14.00,2013-02-11 15:26:00,
2013-02-11 09:28:00,58.3,17.4,28.26,North,353,0.0,0.0,20,0.00,,,0.00,VWS V14.00,2013-02-11 15:28:00,
2013-02-11 09:29:00,58.5,17.6,28.26,North,353,0.0,0.0,20,0.00,,,0.00,VWS V14.00,2013-02-11 15:29:00,
2013-02-11 09:31:00,58.6,17.7,28.26,North,353,0.0,0.0,20,0.00,,,0.00,VWS V14.00,2013-02-11 15:31:00,
2013-02-11 09:33:00,58.8,17.9,28.29,North,353,0.0,0.0,20,0.00,,,0.00,VWS V14.00,2013-02-11 15:33:00,
2013-02-11 09:34:00,59.0,18.0,28.29,North,353,4.0,4.0,20,0.00,,,0.00,VWS V14.00,2013-02-11 15:34:00,
2013-02-11 09:36:00,59.0,18.0,28.29,NNW,343,3.6,4.0,20,0.00,,,0.00,VWS V14.00,2013-02-11 15:36:00,
2013-02-11 09:38:00,58.8,17.9,28.29,NNW,342,2.7,4.0,20,0.00,,,0.00,VWS V14.00,2013-02-11 15:38:00,
2013-02-11 09:39:00,58.8,17.9,28.29,NNW,342,2.2,4.0,20,0.00,,,0.00,VWS V14.00,2013-02-11 15:39:00,
2013-02-11 09:40:00,58.8,17.9,28.29,NNW,342,3.1,4.0,20,0.00,,,0.00,VWS V14.00,2013-02-11 15:40:00,
2013-02-11 09:42:00,58.6,17.7,28.29,NNW,342,0.0,4.0,20,0.00,,,0.00,VWS V14.00,2013-02-11 15:42:00,
2013-02-11 09:45:00,58.5,17.6,28.29,NNW,342,0.0,4.0,20,0.00,,,0.00,VWS V14.00,2013-02-11 15:45:00,
2013-02-11 09:46:00,58.5,17.6,28.29,NNW,343,0.0,0.0,20,0.00,,,0.00,VWS V14.00,2013-02-11 15:46:00,
2013-02-11 09:48:00,58.3,17.4,28.29,North,353,0.0,0.0,20,0.00,,,0.00,VWS V14.00,2013-02-11 15:48:00,
2013-02-11 09:50:00,58.3,17.4,28.29,NNE,27,4.0,4.0,20,0.00,,,0.00,VWS V14.00,2013-02-11 15:50:00,
2013-02-11 09:51:00,58.1,17.3,28.29,NNE,28,3.6,4.0,20,0.00,,,0.00,VWS V14.00,2013-02-11 15:51:00,
2013-02-11 09:54:00,58.1,17.3,28.29,North,10,3.1,5.4,20,0.00,,,0.00,VWS V14.00,2013-02-11 15:54:00,
2013-02-11 09:57:00,58.3,17.4,28.29,NE,36,4.0,5.4,20,0.00,,,0.00,VWS V14.00,2013-02-11 15:57:00,
2013-02-11 09:58:00,58.5,17.6,28.29,NNE,29,0.0,5.4,20,0.00,,,0.00,VWS V14.00,2013-02-11 15:58:00,
2013-02-11 10:00:00,58.6,17.7,28.29,NNE,29,2.7,5.4,20,0.00,,,0.00,VWS V14.00,2013-02-11 16:00:00,
2013-02-11 10:03:00,58.6,17.7,28.29,NNE,29,0.0,5.4,20,0.00,,,0.00,VWS V14.00,2013-02-11 16:03:00,
2013-02-11 10:04:00,59.0,18.0,28.29,NNE,33,0.0,5.4,20,0.00,,,0.00,VWS V14.00,2013-02-11 16:04:00,
2013-02-11 10:05:00,59.0,18.0,28.29,NNE,33,0.0,5.4,20,0.00,,,0.00,VWS V14.00,2013-02-11 16:05:00,
2013-02-11 10:08:00,59.4,18.3,28.29,NNE,16,3.6,5.4,20,0.00,,,0.00,VWS V14.00,2013-02-11 16:08:00,
2013-02-11 10:09:00,59.4,18.3,28.29,NNE,16,3.6,5.4,20,0.00,,,0.00,VWS V14.00,2013-02-11 16:09:00,
2013-02-11 10:10:00,59.4,18.3,28.29,NNE,16,2.2,5.4,20,0.00,,,0.00,VWS V14.00,2013-02-11 16:10:00,
2013-02-11 10:14:00,59.2,18.2,28.29,NNE,29,3.1,5.4,20,0.00,,,0.00,VWS V14.00,2013-02-11 16:14:00,
2013-02-11 10:15:00,59.0,18.0,28.29,NNE,33,3.1,3.6,20,0.00,,,0.00,VWS V14.00,2013-02-11 16:15:00,
2013-02-11 10:19:00,58.8,17.9,28.29,NNE,18,2.7,6.3,20,0.00,,,0.00,VWS V14.00,2013-02-11 16:19:00,
2013-02-11 10:21:00,58.8,17.9,28.29,NNE,20,0.0,6.3,20,0.00,,,0.00,VWS V14.00,2013-02-11 16:21:00,
2013-02-11 10:24:00,58.6,17.7,28.29,NNE,20,0.0,6.3,20,0.00,,,0.00,VWS V14.00,2013-02-11 16:24:00,
2013-02-11 10:25:00,58.5,17.6,28.29,NNE,20,0.0,6.3,20,0.00,,,0.00,VWS V14.00,2013-02-11 16:25:00,
2013-02-11 10:27:00,58.1,17.3,28.29,NNE,16,6.3,6.3,20,0.00,,,0.00,VWS V14.00,2013-02-11 16:27:00,
2013-02-11 10:30:00,57.0,16.4,28.29,NNE,24,0.0,6.3,20,0.00,,,0.00,VWS V14.00,2013-02-11 16:30:00,
2013-02-11 10:33:00,55.2,16.0,28.29,NNE,24,0.0,0.0,21,0.00,,,0.00,VWS V14.00,2013-02-11 16:33:00,
2013-02-11 10:35:00,53.4,14.5,28.29,NNE,24,0.0,2.7,21,0.00,,,0.00,VWS V14.00,2013-02-11 16:35:00,
2013-02-11 10:36:00,53.1,14.2,28.29,NNE,24,0.0,2.7,21,0.00,,,0.00,VWS V14.00,2013-02-11 16:36:00,
2013-02-11 10:37:00,52.3,13.6,28.29,NNE,24,0.0,2.7,21,0.00,,,0.00,VWS V14.00,2013-02-11 16:37:00,
2013-02-11 10:38:00,52.2,13.4,28.29,NNE,24,0.0,2.7,21,0.00,,,0.00,VWS V14.00,2013-02-11 16:38:00,
2013-02-11 10:41:00,51.3,13.7,28.29,NNE,17,4.0,4.0,22,0.00,,,0.00,VWS V14.00,2013-02-11 16:41:00,
2013-02-11 10:42:00,51.1,13.6,28.29,NNE,17,0.0,4.0,22,0.00,,,0.00,VWS V14.00,2013-02-11 16:42:00,
2013-02-11 10:43:00,50.9,13.4,28.29,NNE,17,0.0,4.0,22,0.00,,,0.00,VWS V14.00,2013-02-11 16:43:00,
2013-02-11 10:47:00,50.4,14.9,28.32,NE,43,2.7,3.1,24,0.00,,,0.00,VWS V14.00,2013-02-11 16:47:00,
2013-02-11 10:48:00,50.4,15.9,28.32,NE,43,3.1,3.1,25,0.00,,,0.00,VWS V14.00,2013-02-11 16:48:00,
2013-02-11 10:52:00,50.2,17.5,28.32,NE,48,2.7,4.0,27,0.00,,,0.00,VWS V14.00,2013-02-11 16:52:00,
2013-02-11 10:53:00,50.2,17.5,28.32,NE,48,2.2,4.0,27,0.00,,,0.00,VWS V14.00,2013-02-11 16:53:00,
2013-02-11 10:54:00,50.2,18.4,28.32,NE,48,2.2,4.0,28,0.00,,,0.00,VWS V14.00,2013-02-11 16:54:00,
2013-02-11 10:57:00,50.2,19.2,28.32,NE,54,3.6,4.0,29,0.04,,,0.04,VWS V14.00,2013-02-11 16:57:00,
2013-02-11 10:59:00,50.2,20.7,28.32,NE,56,4.0,4.0,31,0.04,,,0.04,VWS V14.00,2013-02-11 16:59:00,
2013-02-11 11:03:00,50.2,20.7,28.32,ENE,58,0.0,4.0,31,0.12,,,0.12,VWS V14.00,2013-02-11 17:03:00,
2013-02-11 11:04:00,50.2,20.7,28.32,ENE,58,0.0,4.0,31,0.12,,,0.12,VWS V14.00,2013-02-11 17:04:00,
2013-02-11 11:05:00,50.4,21.6,28.32,ENE,57,3.1,4.0,32,0.12,,,0.12,VWS V14.00,2013-02-11 17:05:00,
2013-02-11 11:08:00,50.4,22.4,28.32,ENE,58,3.6,4.0,33,0.12,,,0.12,VWS V14.00,2013-02-11 17:08:00,
2013-02-11 11:09:00,50.2,22.9,28.32,NE,54,4.9,4.9,34,0.12,,,0.12,VWS V14.00,2013-02-11 17:09:00,
2013-02-11 11:10:00,50.2,22.9,28.32,NE,52,3.1,4.9,34,0.12,,,0.12,VWS V14.00,2013-02-11 17:10:00,
2013-02-11 11:11:00,50.2,23.6,28.32,NE,37,4.0,4.9,35,0.12,,,0.12,VWS V14.00,2013-02-11 17:11:00,
2013-02-11 11:22:00,51.1,25.7,28.29,ENE,63,4.9,5.8,37,0.12,,,0.12,VWS V14.00,2013-02-11 17:22:00,
2013-02-11 11:23:00,51.1,25.1,28.29,NE,46,5.4,5.8,36,0.12,,,0.12,VWS V14.00,2013-02-11 17:23:00,
2013-02-11 11:27:00,51.6,24.9,28.29,NNE,29,3.6,8.1,35,0.12,,,0.12,VWS V14.00,2013-02-11 17:27:00,
2013-02-11 11:28:00,51.6,24.9,28.29,NNE,29,5.8,8.1,35,0.12,,,0.12,VWS V14.00,2013-02-11 17:28:00,
2013-02-11 11:29:00,51.6,24.9,28.29,NNE,29,5.8,8.1,35,0.12,,,0.12,VWS V14.00,2013-02-11 17:29:00,
2013-02-11 11:33:00,51.6,24.9,28.29,NNE,29,2.2,4.0,35,0.12,,,0.12,VWS V14.00,2013-02-11 17:33:00,
2013-02-11 11:34:00,51.4,24.7,28.29,ENE,57,4.9,4.9,35,0.12,,,0.12,VWS V14.00,2013-02-11 17:34:00,
2013-02-11 11:36:00,51.1,23.7,28.29,ENE,60,2.7,5.4,34,0.12,,,0.12,VWS V14.00,2013-02-11 17:36:00,
2013-02-11 11:38:00,51.1,24.4,28.29,ENE,59,3.1,5.4,35,0.12,,,0.12,VWS V14.00,2013-02-11 17:38:00,
2013-02-11 11:39:00,51.1,24.4,28.29,ENE,59,3.1,5.4,35,0.12,,,0.12,VWS V14.00,2013-02-11 17:39:00,
2013-02-11 11:41:00,50.5,23.2,28.29,NNE,32,4.9,6.3,34,0.12,,,0.12,VWS V14.00,2013-02-11 17:41:00,
2013-02-11 11:43:00,50.9,24.2,28.29,NNE,27,3.6,6.3,35,0.16,,,0.16,VWS V14.00,2013-02-11 17:43:00,
2013-02-11 11:44:00,50.9,24.2,28.29,NNE,27,3.1,6.3,35,0.16,,,0.16,VWS V14.00,2013-02-11 17:44:00,
2013-02-11 11:46:00,51.1,24.4,28.29,NNE,25,8.7,8.7,35,0.16,,,0.16,VWS V14.00,2013-02-11 17:46:00,
2013-02-11 11:48:00,51.1,24.4,28.29,NE,43,3.6,8.7,35,0.16,,,0.16,VWS V14.00,2013-02-11 17:48:00,
2013-02-11 11:51:00,51.1,24.4,28.29,NE,35,4.0,8.7,35,0.16,,,0.16,VWS V14.00,2013-02-11 17:51:00,
2013-02-11 11:54:00,50.9,23.5,28.29,NE,54,3.1,8.7,34,0.16,,,0.16,VWS V14.00,2013-02-11 17:54:00,
2013-02-11 11:56:00,50.5,23.2,28.29,NE,49,3.1,8.7,34,0.16,,,0.16,VWS V14.00,2013-02-11 17:56:00,
2013-02-11 11:57:00,50.4,23.1,28.29,NE,49,2.7,8.7,34,0.16,,,0.16,VWS V14.00,2013-02-11 17:57:00,
2013-02-11 11:59:00,50.4,22.4,28.29,NE,47,4.0,8.7,33,0.16,,,0.16,VWS V14.00,2013-02-11 17:59:00,
2013-02-11 12:00:00,50.4,23.1,28.29,WNW,300,4.0,8.7,34,0.16,,,0.00,VWS V14.00,2013-02-11 18:00:00,
2013-02-11 12:02:00,50.4,23.1,28.29,WNW,300,4.0,8.7,34,0.16,,,0.00,VWS V14.00,2013-02-11 18:02:00,
2013-02-11 12:03:00,50.5,24.6,28.35,WNW,288,3.6,8.7,36,0.16,,,0.16,VWS V14.00,2013-02-11 18:03:00,
2013-02-11 12:04:00,50.5,25.2,28.35,WNW,288,0.0,8.7,37,0.16,,,0.16,VWS V14.00,2013-02-11 18:04:00,
2013-02-11 12:06:00,50.5,25.9,28.35,SSW,198,3.1,8.7,38,0.16,,,0.16,VWS V14.00,2013-02-11 18:06:00,
2013-02-11 12:08:00,50.5,26.5,28.35,South,174,4.0,8.7,39,0.16,,,0.16,VWS V14.00,2013-02-11 18:08:00,
2013-02-11 12:10:00,50.5,26.5,28.35,South,174,0.0,8.7,39,0.16,,,0.16,VWS V14.00,2013-02-11 18:10:00,
2013-02-11 12:11:00,50.5,26.5,28.35,South,174,0.0,8.7,39,0.16,,,0.16,VWS V14.00,2013-02-11 18:11:00,
2013-02-11 12:13:00,50.7,27.3,28.35,South,174,0.0,8.7,40,0.24,,,0.24,VWS V14.00,2013-02-11 18:13:00,
2013-02-11 12:15:00,50.9,27.5,28.35,South,173,0.0,8.7,40,0.24,,,0.24,VWS V14.00,2013-02-11 18:15:00,
2013-02-11 12:16:00,50.9,27.5,28.35,South,173,0.0,2.7,40,0.12,,,0.24,VWS V14.00,2013-02-11 18:16:00,
2013-02-11 12:18:00,51.3,29.0,28.29,ENE,71,3.6,3.6,42,0.12,,,0.24,VWS V14.00,2013-02-11 18:18:00,
2013-02-11 12:21:00,51.6,30.4,28.29,ENE,71,2.7,3.6,44,0.12,,,0.24,VWS V14.00,2013-02-11 18:21:00,
2013-02-11 12:22:00,51.6,30.4,28.29,NE,46,0.0,3.6,44,0.12,,,0.24,VWS V14.00,2013-02-11 18:22:00,
2013-02-11 12:24:00,52.3,31.1,28.29,NE,51,3.1,4.0,44,0.12,,,0.24,VWS V14.00,2013-02-11 18:24:00,
2013-02-11 12:26:00,52.3,28.8,28.29,NE,49,3.6,4.0,40,0.12,,,0.24,VWS V14.00,2013-02-11 18:26:00,
2013-02-11 12:27:00,52.2,27.3,28.29,ENE,70,3.6,4.9,38,0.12,,,0.24,VWS V14.00,2013-02-11 18:27:00,
2013-02-11 12:28:00,52.2,27.3,28.29,ENE,68,4.9,4.9,38,0.16,,,0.28,VWS V14.00,2013-02-11 18:28:00,
2013-02-11 12:29:00,52.0,27.2,28.29,ENE,71,5.4,5.4,38,0.16,,,0.28,VWS V14.00,2013-02-11 18:29:00,
2013-02-11 12:31:00,52.0,27.2,28.29,ENE,63,5.8,5.8,38,0.16,,,0.28,VWS V14.00,2013-02-11 18:31:00,
2013-02-11 12:32:00,51.8,26.4,28.29,ENE,65,6.3,6.3,37,0.16,,,0.28,VWS V14.00,2013-02-11 18:32:00,
2013-02-11 12:33:00,51.6,26.2,28.29,ENE,69,4.0,6.3,37,0.16,,,0.28,VWS V14.00,2013-02-11 18:33:00,
2013-02-11 12:35:00,51.6,26.9,28.29,NE,34,5.8,6.3,38,0.16,,,0.28,VWS V14.00,2013-02-11 18:35:00,
2013-02-11 12:38:00,51.8,26.4,28.29,NE,41,0.0,6.3,37,0.16,,,0.28,VWS V14.00,2013-02-11 18:38:00,
2013-02-11 12:39:00,51.8,27.0,28.29,NNE,26,4.0,6.3,38,0.16,,,0.28,VWS V14.00,2013-02-11 18:39:00,
2013-02-11 12:41:00,51.6,26.9,28.29,East,82,2.7,6.3,38,0.16,,,0.28,VWS V14.00,2013-02-11 18:41:00,
2013-02-11 12:43:00,51.6,26.9,28.29,NNE,18,5.4,6.3,38,0.16,,,0.28,VWS V14.00,2013-02-11 18:43:00,
2013-02-11 12:45:00,51.4,25.4,28.29,NE,44,3.6,6.3,36,0.16,,,0.28,VWS V14.00,2013-02-11 18:45:00,
2013-02-11 12:46:00,51.4,25.4,28.29,NNE,22,5.4,5.4,36,0.12,,,0.28,VWS V14.00,2013-02-11 18:46:00,
2013-02-11 12:48:00,51.4,25.4,28.29,NNE,15,3.6,6.3,36,0.12,,,0.28,VWS V14.00,2013-02-11 18:48:00,
2013-02-11 12:49:00,51.4,25.4,28.29,North,8,5.4,6.3,36,0.12,,,0.28,VWS V14.00,2013-02-11 18:49:00,
2013-02-11 12:50:00,51.4,24.7,28.29,NE,41,2.7,6.3,35,0.12,,,0.28,VWS V14.00,2013-02-11 18:50:00,
2013-02-11 12:52:00,51.6,25.6,28.29,ENE,66,3.6,6.3,36,0.12,,,0.28,VWS V14.00,2013-02-11 18:52:00,
2013-02-11 12:54:00,51.8,25.7,28.29,NE,55,4.9,6.3,36,0.12,,,0.28,VWS V14.00,2013-02-11 18:54:00,
2013-02-11 12:55:00,51.8,26.4,28.29,NE,51,3.6,7.2,37,0.12,,,0.28,VWS V14.00,2013-02-11 18:55:00,
2013-02-11 12:58:00,52.0,26.5,28.29,NE,53,3.6,7.2,37,0.12,,,0.28,VWS V14.00,2013-02-11 18:58:00,
2013-02-11 13:00:00,52.5,27.0,28.29,NE,54,2.7,8.1,37,0.16,,,0.00,VWS V14.00,2013-02-11 19:00:00,
2013-02-11 13:01:00,52.5,27.0,28.29,NE,54,2.7,8.1,37,0.16,,,0.00,VWS V14.00,2013-02-11 19:01:00,
2013-02-11 13:03:00,53.1,26.1,28.26,NE,52,4.9,8.1,35,0.16,,,0.31,VWS V14.00,2013-02-11 19:03:00,
2013-02-11 13:05:00,52.9,25.3,28.26,ENE,78,4.9,8.1,34,0.16,,,0.31,VWS V14.00,2013-02-11 19:05:00,
2013-02-11 13:07:00,52.5,24.3,28.26,ENE,61,9.2,9.2,33,0.16,,,0.31,VWS V14.00,2013-02-11 19:07:00,
2013-02-11 13:08:00,52.9,24.6,28.26,NNE,23,5.4,9.2,33,0.16,,,0.31,VWS V14.00,2013-02-11 19:08:00,
2013-02-11 13:10:00,52.7,23.7,28.26,ENE,58,7.6,9.6,32,0.16,,,0.31,VWS V14.00,2013-02-11 19:10:00,
2013-02-11 13:12:00,52.9,23.9,28.26,NNE,23,5.8,9.6,32,0.16,,,0.31,VWS V14.00,2013-02-11 19:12:00,
2013-02-11 13:13:00,52.5,23.5,28.26,ESE,118,3.6,9.6,32,0.16,,,0.31,VWS V14.00,2013-02-11 19:13:00,
2013-02-11 13:14:00,52.5,23.5,28.26,ENE,61,5.8,9.6,32,0.16,,,0.31,VWS V14.00,2013-02-11 19:14:00,
2013-02-11 13:16:00,52.0,22.3,28.26,NNE,24,5.8,8.3,31,0.08,,,0.31,VWS V14.00,2013-02-11 19:16:00,
2013-02-11 13:17:00,52.0,23.1,28.26,NNE,16,4.0,8.3,32,0.08,,,0.31,VWS V14.00,2013-02-11 19:17:00,
2013-02-11 13:19:00,51.8,23.6,28.26,NE,38,5.8,9.6,33,0.08,,,0.31,VWS V14.00,2013-02-11 19:19:00,
2013-02-11 13:21:00,51.6,23.5,28.26,NNE,14,4.9,9.6,33,0.08,,,0.31,VWS V14.00,2013-02-11 19:21:00,
2013-02-11 13:23:00,51.8,24.3,28.26,NNE,16,4.0,9.6,34,0.08,,,0.31,VWS V14.00,2013-02-11 19:23:00,
2013-02-11 13:24:00,51.8,24.3,28.26,North,353,3.1,9.6,34,0.08,,,0.31,VWS V14.00,2013-02-11 19:24:00,
2013-02-11 13:25:00,51.6,24.9,28.26,North,357,3.6,9.6,35,0.08,,,0.31,VWS V14.00,2013-02-11 19:25:00,
2013-02-11 13:26:00,51.6,24.9,28.26,NNW,345,4.9,9.6,35,0.08,,,0.31,VWS V14.00,2013-02-11 19:26:00,
2013-02-11 13:28:00,51.1,23.0,28.26,North,353,4.9,9.6,33,0.08,,,0.31,VWS V14.00,2013-02-11 19:28:00,
2013-02-11 13:30:00,51.1,23.0,28.26,North,5,4.0,9.6,33,0.08,,,0.31,VWS V14.00,2013-02-11 19:30:00,
2013-02-11 13:33:00,50.9,23.5,28.26,NNE,25,5.4,6.3,34,0.04,,,0.31,VWS V14.00,2013-02-11 19:33:00,
2013-02-11 13:35:00,50.7,21.2,28.26,NE,53,5.8,7.6,31,0.04,,,0.31,VWS V14.00,2013-02-11 19:35:00,
2013-02-11 13:38:00,51.1,22.3,28.26,NE,38,4.0,7.6,32,0.04,,,0.31,VWS V14.00,2013-02-11 19:38:00,
2013-02-11 13:40:00,51.3,20.9,28.26,NNE,20,6.3,8.7,30,0.04,,,0.31,VWS V14.00,2013-02-11 19:40:00,
2013-02-11 13:41:00,51.6,20.4,28.26,NNE,28,8.7,8.7,29,0.04,,,0.31,VWS V14.00,2013-02-11 19:41:00,
2013-02-11 13:43:00,52.2,20.9,28.26,NNE,30,3.1,8.7,29,0.04,,,0.31,VWS V14.00,2013-02-11 19:43:00,
2013-02-11 13:46:00,52.7,18.8,28.23,North,11,8.7,8.7,26,0.04,,,0.31,VWS V14.00,2013-02-11 19:46:00,
2013-02-11 13:47:00,52.7,18.8,28.23,North,4,5.4,8.7,26,0.04,,,0.31,VWS V14.00,2013-02-11 19:47:00,
2013-02-11 13:48:00,52.5,17.7,28.23,NNE,19,5.8,8.7,25,0.04,,,0.31,VWS V14.00,2013-02-11 19:48:00,
2013-02-11 13:52:00,52.5,17.7,28.23,NW,306,5.4,8.7,25,0.04,,,0.31,VWS V14.00,2013-02-11 19:52:00,
2013-02-11 13:54:00,52.3,18.5,28.23,NW,304,5.8,8.7,26,0.04,,,0.31,VWS V14.00,2013-02-11 19:54:00,
2013-02-11 13:57:00,52.0,17.3,28.23,NW,306,8.1,8.7,25,0.04,,,0.31,VWS V14.00,2013-02-11 19:57:00,
2013-02-11 13:59:00,51.8,17.1,28.23,NNW,330,4.0,8.7,25,0.04,,,0.31,VWS V14.00,2013-02-11 19:59:00,
2013-02-11 14:02:00,51.8,17.1,28.23,North,7,0.0,8.7,25,0.04,,,0.00,VWS V14.00,2013-02-11 20:02:00,
2013-02-11 14:03:00,51.8,17.1,28.26,NNE,12,0.0,8.7,25,0.04,,,0.31,VWS V14.00,2013-02-11 20:03:00,
2013-02-11 14:05:00,52.2,18.3,28.26,NNE,16,0.0,8.7,26,0.04,,,0.31,VWS V14.00,2013-02-11 20:05:00,
2013-02-11 14:07:00,52.2,18.3,28.26,NNE,28,0.0,8.7,26,0.04,,,0.31,VWS V14.00,2013-02-11 20:07:00,
2013-02-11 14:08:00,52.2,17.4,28.26,NE,42,0.0,8.7,25,0.04,,,0.31,VWS V14.00,2013-02-11 20:08:00,
2013-02-11 14:09:00,52.2,17.4,28.26,NE,37,0.0,8.7,25,0.04,,,0.31,VWS V14.00,2013-02-11 20:09:00,
2013-02-11 14:10:00,52.3,17.6,28.26,NE,47,0.0,8.7,25,0.04,,,0.31,VWS V14.00,2013-02-11 20:10:00,
2013-02-11 14:13:00,52.9,18.0,28.26,NNE,12,0.0,8.7,25,0.04,,,0.31,VWS V14.00,2013-02-11 20:13:00,
2013-02-11 14:14:00,52.7,16.9,28.26,NNE,28,0.0,8.7,24,0.04,,,0.31,VWS V14.00,2013-02-11 20:14:00,
2013-02-11 14:16:00,52.9,17.1,28.26,NNE,33,0.0,0.0,24,0.00,,,0.31,VWS V14.00,2013-02-11 20:16:00,
2013-02-11 14:18:00,52.9,16.1,28.23,NE,55,0.0,0.0,23,0.00,,,0.31,VWS V14.00,2013-02-11 20:18:00,
2013-02-11 14:20:00,52.7,16.9,28.23,ENE,70,0.0,0.0,24,0.00,,,0.31,VWS V14.00,2013-02-11 20:20:00,
2013-02-11 14:22:00,52.9,17.1,28.23,NE,51,0.0,0.0,24,0.00,,,0.31,VWS V14.00,2013-02-11 20:22:00,
2013-02-11 14:24:00,52.5,15.8,28.23,ENE,65,0.0,0.0,23,0.00,,,0.31,VWS V14.00,2013-02-11 20:24:00,
2013-02-11 14:25:00,52.9,17.1,28.23,NNE,27,0.0,0.0,24,0.00,,,0.31,VWS V14.00,2013-02-11 20:25:00,
2013-02-11 14:28:00,53.1,17.2,28.23,NNE,21,0.0,0.0,24,0.00,,,0.31,VWS V14.00,2013-02-11 20:28:00,
2013-02-11 14:29:00,52.9,17.1,28.23,North,3,0.0,0.0,24,0.00,,,0.31,VWS V14.00,2013-02-11 20:29:00,
2013-02-11 14:30:00,52.9,17.1,28.23,North,3,0.0,0.0,24,0.00,,,0.31,VWS V14.00,2013-02-11 20:30:00,
2013-02-11 14:31:00,52.7,16.0,28.23,NE,34,0.0,0.0,23,0.00,,,0.31,VWS V14.00,2013-02-11 20:31:00,
2013-02-11 14:33:00,52.9,16.1,28.23,NNW,345,0.0,0.0,23,0.00,,,0.31,VWS V14.00,2013-02-11 20:33:00,
2013-02-11 14:34:00,52.9,16.1,28.23,North,357,0.0,0.0,23,0.00,,,0.31,VWS V14.00,2013-02-11 20:34:00,
2013-02-11 14:35:00,52.7,16.0,28.23,NNE,13,0.0,0.0,23,0.00,,,0.31,VWS V14.00,2013-02-11 20:35:00,
2013-02-11 14:36:00,52.7,16.0,28.23,NNE,18,0.0,0.0,23,0.00,,,0.31,VWS V14.00,2013-02-11 20:36:00,
2013-02-11 14:39:00,53.1,17.2,28.23,North,6,0.0,0.0,24,0.00,,,0.31,VWS V14.00,2013-02-11 20:39:00,
2013-02-11 14:41:00,53.4,17.5,28.23,North,6,0.0,0.0,24,0.00,,,0.31,VWS V14.00,2013-02-11 20:41:00,
2013-02-11 14:44:00,53.2,16.4,28.23,NNE,19,0.0,0.0,23,0.00,,,0.31,VWS V14.00,2013-02-11 20:44:00,
2013-02-11 14:46:00,53.2,16.4,28.23,NNE,23,0.0,0.0,23,0.00,,,0.31,VWS V14.00,2013-02-11 20:46:00,
2013-02-11 14:47:00,53.4,16.6,28.23,NNE,28,0.0,0.0,23,0.00,,,0.31,VWS V14.00,2013-02-11 20:47:00,
2013-02-11 14:49:00,53.6,16.7,28.23,NNE,20,0.0,0.0,23,0.00,,,0.31,VWS V14.00,2013-02-11 20:49:00,
2013-02-11 14:50:00,53.6,16.7,28.23,NNE,20,0.0,0.0,23,0.00,,,0.31,VWS V14.00,2013-02-11 20:50:00,
2013-02-11 14:52:00,53.4,17.5,28.23,NNE,19,0.0,0.0,24,0.00,,,0.31,VWS V14.00,2013-02-11 20:52:00,
2013-02-11 14:55:00,53.6,17.7,28.23,NNW,348,0.0,0.0,24,0.00,,,0.31,VWS V14.00,2013-02-11 20:55:00,
2013-02-11 14:57:00,53.4,16.6,28.23,NNE,12,0.0,0.0,23,0.00,,,0.31,VWS V14.00,2013-02-11 20:57:00,
2013-02-11 14:58:00,53.4,16.6,28.23,NNE,12,0.0,0.0,23,0.00,,,0.31,VWS V14.00,2013-02-11 20:58:00,
2013-02-11 15:00:00,53.6,16.7,28.23,North,353,0.0,0.0,23,0.00,,,0.00,VWS V14.00,2013-02-11 21:00:00,
2013-02-11 15:03:00,53.8,17.9,28.23,NNW,342,0.0,0.0,24,0.00,,,0.31,VWS V14.00,2013-02-11 21:03:00,
2013-02-11 15:04:00,53.8,17.9,28.23,NNW,342,0.0,0.0,24,0.00,,,0.31,VWS V14.00,2013-02-11 21:04:00,
2013-02-11 15:05:00,53.8,17.9,28.23,North,353,0.0,0.0,24,0.00,,,0.31,VWS V14.00,2013-02-11 21:05:00,
2013-02-11 15:06:00,53.8,17.9,28.23,North,353,0.0,0.0,24,0.00,,,0.31,VWS V14.00,2013-02-11 21:06:00,
2013-02-11 15:09:00,53.2,17.4,28.23,North,357,0.0,0.0,24,0.00,,,0.31,VWS V14.00,2013-02-11 21:09:00,
2013-02-11 15:10:00,53.2,17.4,28.23,NNW,346,0.0,0.0,24,0.00,,,0.31,VWS V14.00,2013-02-11 21:10:00,
2013-02-11 15:11:00,53.2,17.4,28.23,NNW,343,0.0,0.0,24,0.00,,,0.31,VWS V14.00,2013-02-11 21:11:00,
2013-02-11 15:12:00,53.1,17.2,28.23,NW,315,0.0,0.0,24,0.00,,,0.31,VWS V14.00,2013-02-11 21:12:00,
2013-02-11 15:15:00,52.7,17.9,28.23,West,279,0.0,0.0,25,0.00,,,0.31,VWS V14.00,2013-02-11 21:15:00,
2013-02-11 15:16:00,52.7,17.9,28.23,West,279,0.0,0.0,25,0.00,,,0.31,VWS V14.00,2013-02-11 21:16:00,
2013-02-11 15:17:00,52.7,17.9,28.23,NNW,344,0.0,0.0,25,0.00,,,0.31,VWS V14.00,2013-02-11 21:17:00,
2013-02-11 15:20:00,52.3,17.6,28.23,NNE,19,0.0,0.0,25,0.00,,,0.31,VWS V14.00,2013-02-11 21:20:00,
2013-02-11 15:21:00,52.5,18.6,28.23,North,357,0.0,0.0,26,0.00,,,0.31,VWS V14.00,2013-02-11 21:21:00,
2013-02-11 15:23:00,52.3,18.5,28.23,North,11,0.0,0.0,26,0.00,,,0.31,VWS V14.00,2013-02-11 21:23:00,
2013-02-11 15:25:00,52.3,18.5,28.23,North,357,0.0,0.0,26,0.00,,,0.31,VWS V14.00,2013-02-11 21:25:00,
2013-02-11 15:26:00,52.3,18.5,28.23,NNE,20,0.0,0.0,26,0.00,,,0.31,VWS V14.00,2013-02-11 21:26:00,
2013-02-11 15:27:00,52.3,18.5,28.23,NNE,16,0.0,0.0,26,0.00,,,0.31,VWS V14.00,2013-02-11 21:27:00,
2013-02-11 15:28:00,52.5,18.6,28.23,NNE,13,0.0,0.0,26,0.00,,,0.31,VWS V14.00,2013-02-11 21:28:00,
2013-02-11 15:31:00,52.3,18.5,28.23,NE,38,0.0,0.0,26,0.00,,,0.31,VWS V14.00,2013-02-11 21:31:00,
2013-02-11 15:32:00,52.3,18.5,28.23,NNE,31,0.0,0.0,26,0.00,,,0.31,VWS V14.00,2013-02-11 21:32:00,
2013-02-11 15:34:00,52.2,17.4,28.23,NE,37,0.0,0.0,25,0.00,,,0.31,VWS V14.00,2013-02-11 21:34:00,
2013-02-11 15:36:00,52.3,18.5,28.23,NNE,19,0.0,0.0,26,0.00,,,0.31,VWS V14.00,2013-02-11 21:36:00,
2013-02-11 15:37:00,52.2,17.4,28.23,NE,38,0.0,0.0,25,0.00,,,0.31,VWS V14.00,2013-02-11 21:37:00,
2013-02-11 15:38:00,52.2,17.4,28.23,NNE,16,0.0,0.0,25,0.00,,,0.31,VWS V14.00,2013-02-11 21:38:00,
2013-02-11 15:39:00,52.2,17.4,28.23,North,353,0.0,0.0,25,0.00,,,0.31,VWS V14.00,2013-02-11 21:39:00,
2013-02-11 15:41:00,52.2,18.3,28.23,North,353,0.0,0.0,26,0.00,,,0.31,VWS V14.00,2013-02-11 21:41:00,
2013-02-11 15:43:00,52.2,18.3,28.23,NNE,24,0.0,0.0,26,0.00,,,0.31,VWS V14.00,2013-02-11 21:43:00,
2013-02-11 15:45:00,52.2,18.3,28.23,NNE,26,0.0,0.0,26,0.00,,,0.31,VWS V14.00,2013-02-11 21:45:00,
2013-02-11 15:46:00,52.0,17.3,28.23,NE,38,0.0,0.0,25,0.00,,,0.31,VWS V14.00,2013-02-11 21:46:00,
2013-02-11 15:48:00,52.0,18.2,28.23,NNE,18,0.0,0.0,26,0.00,,,0.31,VWS V14.00,2013-02-11 21:48:00,
2013-02-11 15:50:00,52.0,18.2,28.23,NNE,28,0.0,0.0,26,0.00,,,0.31,VWS V14.00,2013-02-11 21:50:00,
2013-02-11 15:53:00,52.2,18.3,28.23,NNE,16,0.0,0.0,26,0.00,,,0.31,VWS V14.00,2013-02-11 21:53:00,
2013-02-11 15:54:00,52.2,18.3,28.23,NNE,16,0.0,0.0,26,0.00,,,0.31,VWS V14.00,2013-02-11 21:54:00,
2013-02-11 15:55:00,52.0,19.1,28.23,NNE,20,0.0,0.0,27,0.00,,,0.31,VWS V14.00,2013-02-11 21:55:00,
2013-02-11 15:56:00,52.0,19.1,28.23,NNE,20,0.0,0.0,27,0.00,,,0.31,VWS V14.00,2013-02-11 21:56:00,
2013-02-11 15:58:00,51.8,18.0,28.23,NE,41,0.0,0.0,26,0.00,,,0.31,VWS V14.00,2013-02-11 21:58:00,
2013-02-11 15:59:00,52.2,18.3,28.23,NNE,19,0.0,0.0,26,0.00,,,0.31,VWS V14.00,2013-02-11 21:59:00,
2013-02-11 16:01:00,52.2,18.3,28.23,NNE,19,0.0,0.0,26,0.00,,,0.00,VWS V14.00,2013-02-11 22:01:00,
2013-02-11 16:05:00,52.0,18.2,28.23,NNE,18,0.0,0.0,26,0.00,,,0.31,VWS V14.00,2013-02-11 22:05:00,
2013-02-11 16:06:00,52.2,19.2,28.23,North,350,0.0,0.0,27,0.00,,,0.31,VWS V14.00,2013-02-11 22:06:00,
2013-02-11 16:07:00,52.2,19.2,28.23,North,10,0.0,0.0,27,0.00,,,0.31,VWS V14.00,2013-02-11 22:07:00,
2013-02-11 16:11:00,52.2,19.2,28.23,North,353,0.0,0.0,27,0.00,,,0.31,VWS V14.00,2013-02-11 22:11:00,
2013-02-11 16:12:00,52.3,20.2,28.23,NNE,19,0.0,0.0,28,0.00,,,0.31,VWS V14.00,2013-02-11 22:12:00,
2013-02-11 16:16:00,52.3,19.4,28.23,North,357,0.0,0.0,27,0.00,,,0.31,VWS V14.00,2013-02-11 22:16:00,
2013-02-11 16:17:00,52.3,19.4,28.23,NNE,23,0.0,0.0,27,0.00,,,0.31,VWS V14.00,2013-02-11 22:17:00,
2013-02-11 16:18:00,52.3,19.4,28.23,NNE,23,0.0,0.0,27,0.00,,,0.31,VWS V14.00,2013-02-11 22:18:00,
2013-02-11 16:21:00,52.5,19.5,28.23,NNE,31,0.0,0.0,27,0.00,,,0.31,VWS V14.00,2013-02-11 22:21:00,
2013-02-11 16:22:00,52.5,19.5,28.23,NNE,14,0.0,0.0,27,0.00,,,0.31,VWS V14.00,2013-02-11 22:22:00,
2013-02-11 16:23:00,52.3,19.4,28.23,NE,41,0.0,0.0,27,0.00,,,0.31,VWS V14.00,2013-02-11 22:23:00,
2013-02-11 16:26:00,52.5,20.4,28.23,NNE,21,0.0,0.0,28,0.00,,,0.31,VWS V14.00,2013-02-11 22:26:00,
2013-02-11 16:27:00,52.5,20.4,28.23,NNE,21,0.0,0.0,28,0.00,,,0.31,VWS V14.00,2013-02-11 22:27:00,
2013-02-11 16:28:00,52.5,20.4,28.23,NE,44,0.0,0.0,28,0.00,,,0.31,VWS V14.00,2013-02-11 22:28:00,
2013-02-11 16:32:00,52.7,19.7,28.23,NNE,29,0.0,0.0,27,0.00,,,0.31,VWS V14.00,2013-02-11 22:32:00,
2013-02-11 16:33:00,52.7,19.7,28.23,NE,51,0.0,0.0,27,0.00,,,0.31,VWS V14.00,2013-02-11 22:33:00,
2013-02-11 16:34:00,52.7,19.7,28.23,NE,51,0.0,0.0,27,0.00,,,0.31,VWS V14.00,2013-02-11 22:34:00,
2013-02-11 16:37:00,52.7,19.7,28.23,NE,40,0.0,0.0,27,0.00,,,0.31,VWS V14.00,2013-02-11 22:37:00,
2013-02-11 16:38:00,52.9,19.0,28.23,North,7,0.0,0.0,26,0.00,,,0.31,VWS V14.00,2013-02-11 22:38:00,
2013-02-11 16:39:00,52.9,19.0,28.23,NNE,13,0.0,0.0,26,0.00,,,0.31,VWS V14.00,2013-02-11 22:39:00,
2013-02-11 16:42:00,52.9,19.8,28.23,NE,56,0.0,0.0,27,0.00,,,0.31,VWS V14.00,2013-02-11 22:42:00,
2013-02-11 16:43:00,52.9,19.8,28.23,NE,56,0.0,0.0,27,0.00,,,0.31,VWS V14.00,2013-02-11 22:43:00,
2013-02-11 16:44:00,52.9,19.8,28.23,NE,56,0.0,0.0,27,0.00,,,0.31,VWS V14.00,2013-02-11 22:44:00,
2013-02-11 16:47:00,52.7,18.8,28.23,NNE,33,0.0,0.0,26,0.00,,,0.31,VWS V14.00,2013-02-11 22:47:00,
2013-02-11 16:48:00,52.7,19.7,28.23,NNE,31,0.0,0.0,27,0.00,,,0.31,VWS V14.00,2013-02-11 22:48:00,
2013-02-11 16:49:00,52.7,19.7,28.23,NNE,32,0.0,0.0,27,0.00,,,0.31,VWS V14.00,2013-02-11 22:49:00,
2013-02-11 16:50:00,52.9,19.8,28.23,NE,53,0.0,0.0,27,0.00,,,0.31,VWS V14.00,2013-02-11 22:50:00,
2013-02-11 16:53:00,52.9,19.0,28.23,ENE,62,0.0,0.0,26,0.00,,,0.31,VWS V14.00,2013-02-11 22:53:00,
2013-02-11 16:54:00,53.1,19.1,28.23,NE,52,0.0,0.0,26,0.00,,,0.31,VWS V14.00,2013-02-11 22:54:00,
2013-02-11 16:58:00,53.1,19.1,28.23,NE,55,0.0,0.0,26,0.00,,,0.31,VWS V14.00,2013-02-11 22:58:00,
2013-02-11 16:59:00,53.1,19.1,28.23,NE,51,0.0,0.0,26,0.00,,,0.31,VWS V14.00,2013-02-11 22:59:00,
2013-02-11 17:03:00,52.9,18.0,28.23,NNE,18,0.0,0.0,25,0.00,,,0.31,VWS V14.00,2013-02-11 23:03:00,
2013-02-11 17:04:00,52.9,18.0,28.23,NE,54,0.0,0.0,25,0.00,,,0.31,VWS V14.00,2013-02-11 23:04:00,
2013-02-11 17:05:00,52.9,18.0,28.23,NE,50,0.0,0.0,25,0.00,,,0.31,VWS V14.00,2013-02-11 23:05:00,
2013-02-11 17:08:00,53.1,20.0,28.23,NNE,16,0.0,0.0,27,0.00,,,0.31,VWS V14.00,2013-02-11 23:08:00,
2013-02-11 17:09:00,53.1,20.0,28.23,NNE,26,0.0,0.0,27,0.00,,,0.31,VWS V14.00,2013-02-11 23:09:00,
2013-02-11 17:10:00,53.1,20.0,28.23,NNE,24,0.0,0.0,27,0.00,,,0.31,VWS V14.00,2013-02-11 23:10:00,
2013-02-11 17:13:00,52.9,19.0,28.23,NNE,17,0.0,0.0,26,0.00,,,0.31,VWS V14.00,2013-02-11 23:13:00,
2013-02-11 17:14:00,52.9,19.0,28.23,NE,43,0.0,0.0,26,0.00,,,0.31,VWS V14.00,2013-02-11 23:14:00,
2013-02-11 17:15:00,52.9,19.0,28.23,NE,54,0.0,0.0,26,0.00,,,0.31,VWS V14.00,2013-02-11 23:15:00,
2013-02-11 17:19:00,52.9,19.0,28.23,NNE,24,0.0,0.0,26,0.00,,,0.31,VWS V14.00,2013-02-11 23:19:00,
2013-02-11 17:20:00,52.9,19.0,28.23,NNE,27,0.0,0.0,26,0.00,,,0.31,VWS V14.00,2013-02-11 23:20:00,
2013-02-11 17:21:00,53.1,19.1,28.23,NNE,27,0.0,0.0,26,0.00,,,0.31,VWS V14.00,2013-02-11 23:21:00,
2013-02-11 17:24:00,53.1,19.1,28.23,NE,41,0.0,0.0,26,0.00,,,0.31,VWS V14.00,2013-02-11 23:24:00,
2013-02-11 17:25:00,53.1,19.1,28.23,NE,43,0.0,0.0,26,0.00,,,0.31,VWS V14.00,2013-02-11 23:25:00,
2013-02-11 17:26:00,53.1,19.1,28.23,NE,43,0.0,0.0,26,0.00,,,0.31,VWS V14.00,2013-02-11 23:26:00,
2013-02-11 17:29:00,52.9,19.0,28.23,NE,38,0.0,0.0,26,0.00,,,0.31,VWS V14.00,2013-02-11 23:29:00,
2013-02-11 17:31:00,52.9,19.0,28.23,NE,38,0.0,0.0,26,0.00,,,0.31,VWS V14.00,2013-02-11 23:31:00,
2013-02-11 17:32:00,52.9,19.0,28.23,NE,38,0.0,0.0,26,0.00,,,0.31,VWS V14.00,2013-02-11 23:32:00,
2013-02-11 17:34:00,52.9,19.0,28.23,NE,40,0.0,0.0,26,0.00,,,0.31,VWS V14.00,2013-02-11 23:34:00,
2013-02-11 17:37:00,52.9,19.8,28.23,NE,50,0.0,0.0,27,0.00,,,0.31,VWS V14.00,2013-02-11 23:37:00,
2013-02-11 17:39:00,52.9,19.8,28.23,NE,50,0.0,0.0,27,0.00,,,0.31,VWS V14.00,2013-02-11 23:39:00,
2013-02-11 17:42:00,52.7,19.7,28.23,NE,48,0.0,0.0,27,0.00,,,0.31,VWS V14.00,2013-02-11 23:42:00,
2013-02-11 17:43:00,52.7,19.7,28.23,NE,48,0.0,0.0,27,0.00,,,0.31,VWS V14.00,2013-02-11 23:43:00,
2013-02-11 17:45:00,52.7,19.7,28.23,NE,48,0.0,0.0,27,0.00,,,0.31,VWS V14.00,2013-02-11 23:45:00,
2013-02-11 17:48:00,52.5,19.5,28.23,NE,48,0.0,0.0,27,0.00,,,0.31,VWS V14.00,2013-02-11 23:48:00,
2013-02-11 17:49:00,52.5,20.4,28.23,NE,48,0.0,0.0,28,0.00,,,0.31,VWS V14.00,2013-02-11 23:49:00,
2013-02-11 17:50:00,52.5,20.4,28.23,NE,52,0.0,0.0,28,0.00,,,0.31,VWS V14.00,2013-02-11 23:50:00,
2013-02-11 17:53:00,52.5,20.4,28.23,NE,55,0.0,0.0,28,0.00,,,0.31,VWS V14.00,2013-02-11 23:53:00,
2013-02-11 17:54:00,52.3,21.0,28.23,NE,56,0.0,0.0,29,0.00,,,0.31,VWS V14.00,2013-02-11 23:54:00,
2013-02-11 17:55:00,52.3,21.0,28.23,ENE,59,0.0,0.0,29,0.00,,,0.31,VWS V14.00,2013-02-11 23:55:00,
2013-02-11 17:56:00,52.3,21.0,28.23,ENE,59,0.0,0.0,29,0.00,,,0.31,VWS V14.00,2013-02-11 23:56:00,
2013-02-11 17:59:00,52.3,21.0,28.23,ENE,59,0.0,0.0,29,0.00,,,0.31,VWS V14.00,2013-02-11 23:59:00,
2013-02-11 18:00:00,52.3,21.0,28.23,NE,48,0.0,0.0,29,0.00,,,0.00,VWS V14.00,2013-02-12 00:00:00,
2013-02-11 18:02:00,52.3,20.2,28.23,NNE,17,0.0,0.0,28,0.00,,,0.31,VWS V14.00,2013-02-12 00:02:00,
2013-02-11 18:04:00,52.3,20.2,28.23,NNE,17,0.0,0.0,28,0.00,,,0.31,VWS V14.00,2013-02-12 00:04:00,
2013-02-11 18:05:00,52.3,20.2,28.23,NNE,20,0.0,0.0,28,0.00,,,0.31,VWS V14.00,2013-02-12 00:05:00,
2013-02-11 18:08:00,52.3,21.0,28.23,NE,44,0.0,0.0,29,0.00,,,0.31,VWS V14.00,2013-02-12 00:08:00,
2013-02-11 18:09:00,52.3,20.2,28.23,NE,43,0.0,0.0,28,0.00,,,0.31,VWS V14.00,2013-02-12 00:09:00,
2013-02-11 18:10:00,52.3,20.2,28.23,NE,51,0.0,0.0,28,0.00,,,0.31,VWS V14.00,2013-02-12 00:10:00,
2013-02-11 18:11:00,52.3,20.2,28.23,NNE,29,0.0,0.0,28,0.00,,,0.31,VWS V14.00,2013-02-12 00:11:00,
2013-02-11 18:14:00,52.3,20.2,28.23,NE,37,0.0,0.0,28,0.00,,,0.31,VWS V14.00,2013-02-12 00:14:00,
2013-02-11 18:16:00,52.2,20.1,28.23,NE,51,0.0,0.0,28,0.00,,,0.31,VWS V14.00,2013-02-12 00:16:00,
2013-02-11 18:19:00,52.2,20.1,28.23,NE,50,0.0,0.0,28,0.00,,,0.31,VWS V14.00,2013-02-12 00:19:00,
2013-02-11 18:20:00,52.2,20.1,28.23,NE,50,0.0,0.0,28,0.00,,,0.31,VWS V14.00,2013-02-12 00:20:00,
2013-02-11 18:22:00,52.2,20.1,28.23,NE,43,0.0,0.0,28,0.00,,,0.31,VWS V14.00,2013-02-12 00:22:00,
2013-02-11 18:24:00,52.2,20.1,28.23,NE,43,0.0,0.0,28,0.00,,,0.31,VWS V14.00,2013-02-12 00:24:00,
2013-02-11 18:25:00,52.2,20.1,28.23,ENE,61,0.0,0.0,28,0.00,,,0.31,VWS V14.00,2013-02-12 00:25:00,
2013-02-11 18:27:00,52.0,19.9,28.23,ENE,58,0.0,0.0,28,0.00,,,0.31,VWS V14.00,2013-02-12 00:27:00,
2013-02-11 18:29:00,52.0,19.9,28.23,NNE,33,0.0,0.0,28,0.00,,,0.31,VWS V14.00,2013-02-12 00:29:00,
2013-02-11 18:30:00,52.0,19.9,28.23,NNE,33,0.0,0.0,28,0.00,,,0.31,VWS V14.00,2013-02-12 00:30:00,
2013-02-11 18:34:00,52.0,19.9,28.23,NE,42,0.0,0.0,28,0.00,,,0.31,VWS V14.00,2013-02-12 00:34:00,
2013-02-11 18:35:00,52.0,19.9,28.23,NNE,29,0.0,0.0,28,0.00,,,0.31,VWS V14.00,2013-02-12 00:35:00,
2013-02-11 18:36:00,52.0,19.9,28.23,NE,48,0.0,0.0,28,0.00,,,0.31,VWS V14.00,2013-02-12 00:36:00,
2013-02-11 18:39:00,52.0,20.7,28.23,NE,51,0.0,0.0,29,0.00,,,0.31,VWS V14.00,2013-02-12 00:39:00,
2013-02-11 18:41:00,52.0,19.9,28.23,NE,43,0.0,0.0,28,0.00,,,0.31,VWS V14.00,2013-02-12 00:41:00,
2013-02-11 18:43:00,52.0,19.9,28.23,ENE,68,0.0,0.0,28,0.00,,,0.31,VWS V14.00,2013-02-12 00:43:00,
2013-02-11 18:45:00,51.8,19.8,28.23,NE,44,0.0,0.0,28,0.00,,,0.31,VWS V14.00,2013-02-12 00:45:00,
2013-02-11 18:46:00,51.8,19.8,28.23,NE,45,0.0,0.0,28,0.00,,,0.31,VWS V14.00,2013-02-12 00:46:00,
2013-02-11 18:49:00,51.8,20.6,28.23,NE,45,0.0,0.0,29,0.00,,,0.31,VWS V14.00,2013-02-12 00:49:00,
2013-02-11 18:51:00,51.8,20.6,28.23,NE,50,0.0,0.0,29,0.00,,,0.31,VWS V14.00,2013-02-12 00:51:00,
2013-02-11 18:54:00,51.8,21.4,28.23,NE,45,0.0,0.0,30,0.00,,,0.31,VWS V14.00,2013-02-12 00:54:00,
2013-02-11 18:56:00,51.8,21.4,28.23,NE,38,0.0,0.0,30,0.00,,,0.31,VWS V14.00,2013-02-12 00:56:00,
2013-02-11 18:57:00,51.8,20.6,28.23,NE,50,0.0,0.0,29,0.00,,,0.31,VWS V14.00,2013-02-12 00:57:00,
2013-02-11 18:59:00,51.8,21.4,28.23,NE,45,0.0,0.0,30,0.00,,,0.00,VWS V14.00,2013-02-12 00:59:00,
2013-02-11 19:01:00,51.8,21.4,28.23,NE,48,0.0,0.0,30,0.00,,,0.31,VWS V14.00,2013-02-12 01:01:00,
2013-02-11 19:02:00,51.8,21.4,28.23,ENE,57,0.0,0.0,30,0.00,,,0.31,VWS V14.00,2013-02-12 01:02:00,
2013-02-11 19:03:00,51.8,21.4,28.23,ENE,75,0.0,0.0,30,0.00,,,0.31,VWS V14.00,2013-02-12 01:03:00,
2013-02-11 19:04:00,51.8,20.6,28.23,ENE,58,0.0,0.0,29,0.00,,,0.31,VWS V14.00,2013-02-12 01:04:00,
2013-02-11 19:07:00,51.8,20.6,28.23,NNE,16,0.0,0.0,29,0.00,,,0.31,VWS V14.00,2013-02-12 01:07:00,
2013-02-11 19:10:00,51.8,21.4,28.23,NE,54,0.0,0.0,30,0.00,,,0.31,VWS V14.00,2013-02-12 01:10:00,
2013-02-11 19:13:00,51.8,21.4,28.23,ENE,58,0.0,0.0,30,0.00,,,0.31,VWS V14.00,2013-02-12 01:13:00,
2013-02-11 19:14:00,51.8,21.4,28.23,ENE,57,0.0,0.0,30,0.00,,,0.31,VWS V14.00,2013-02-12 01:14:00,
2013-02-11 19:15:00,51.8,21.4,28.23,ENE,59,0.0,0.0,30,0.00,,,0.31,VWS V14.00,2013-02-12 01:15:00,
2013-02-11 19:16:00,51.8,22.1,28.23,ENE,59,0.0,0.0,31,0.00,,,0.31,VWS V14.00,2013-02-12 01:16:00,
2013-02-11 19:19:00,51.8,22.1,28.23,NNE,14,0.0,0.0,31,0.00,,,0.31,VWS V14.00,2013-02-12 01:19:00,
2013-02-11 19:20:00,51.8,22.1,28.23,NNE,31,0.0,0.0,31,0.00,,,0.31,VWS V14.00,2013-02-12 01:20:00,
2013-02-11 19:21:00,51.8,22.1,28.23,NE,51,0.0,0.0,31,0.00,,,0.31,VWS V14.00,2013-02-12 01:21:00,
2013-02-11 19:22:00,51.6,22.0,28.23,NNE,32,0.0,0.0,31,0.00,,,0.31,VWS V14.00,2013-02-12 01:22:00,
2013-02-11 19:24:00,51.6,22.0,28.23,ENE,66,0.0,0.0,31,0.00,,,0.31,VWS V14.00,2013-02-12 01:24:00,
2013-02-11 19:25:00,51.6,22.0,28.23,ENE,67,0.0,0.0,31,0.00,,,0.31,VWS V14.00,2013-02-12 01:25:00,
2013-02-11 19:26:00,51.6,22.0,28.23,ENE,65,0.0,0.0,31,0.00,,,0.31,VWS V14.00,2013-02-12 01:26:00,
2013-02-11 19:27:00,51.6,22.0,28.23,ENE,65,0.0,0.0,31,0.00,,,0.31,VWS V14.00,2013-02-12 01:27:00,
2013-02-11 19:29:00,51.4,21.8,28.23,ENE,60,0.0,0.0,31,0.00,,,0.31,VWS V14.00,2013-02-12 01:29:00,
2013-02-11 19:30:00,51.4,21.8,28.23,ENE,58,0.0,0.0,31,0.00,,,0.31,VWS V14.00,2013-02-12 01:30:00,
2013-02-11 19:32:00,51.4,22.6,28.23,NE,47,0.0,0.0,32,0.00,,,0.31,VWS V14.00,2013-02-12 01:32:00,
2013-02-11 19:34:00,51.4,22.6,28.23,NE,53,0.0,0.0,32,0.00,,,0.31,VWS V14.00,2013-02-12 01:34:00,
2013-02-11 19:35:00,51.4,22.6,28.23,NE,52,0.0,0.0,32,0.00,,,0.31,VWS V14.00,2013-02-12 01:35:00,
2013-02-11 19:36:00,51.4,22.6,28.23,NE,52,0.0,0.0,32,0.00,,,0.31,VWS V14.00,2013-02-12 01:36:00,
2013-02-11 19:37:00,51.4,22.6,28.23,NE,45,0.0,0.0,32,0.00,,,0.31,VWS V14.00,2013-02-12 01:37:00,
2013-02-11 19:39:00,51.3,22.4,28.23,NE,45,0.0,0.0,32,0.00,,,0.31,VWS V14.00,2013-02-12 01:39:00,
2013-02-11 19:40:00,51.3,22.4,28.23,NE,45,0.0,0.0,32,0.00,,,0.31,VWS V14.00,2013-02-12 01:40:00,
2013-02-11 19:41:00,51.3,22.4,28.23,NE,45,0.0,0.0,32,0.00,,,0.31,VWS V14.00,2013-02-12 01:41:00,
2013-02-11 19:44:00,51.3,22.4,28.23,NE,40,0.0,0.0,32,0.00,,,0.31,VWS V14.00,2013-02-12 01:44:00,
2013-02-11 19:45:00,51.4,22.6,28.23,NE,34,0.0,0.0,32,0.00,,,0.31,VWS V14.00,2013-02-12 01:45:00,
2013-02-11 19:46:00,51.4,22.6,28.23,NE,47,0.0,0.0,32,0.00,,,0.31,VWS V14.00,2013-02-12 01:46:00,
2013-02-11 19:49:00,51.4,21.8,28.23,ENE,64,0.0,0.0,31,0.00,,,0.31,VWS V14.00,2013-02-12 01:49:00,
2013-02-11 19:53:00,51.4,22.6,28.23,NE,43,0.0,0.0,32,0.00,,,0.31,VWS V14.00,2013-02-12 01:53:00,
2013-02-11 19:54:00,51.4,22.6,28.23,North,10,0.0,0.0,32,0.00,,,0.31,VWS V14.00,2013-02-12 01:54:00,
2013-02-11 19:55:00,51.4,22.6,28.23,North,10,0.0,0.0,32,0.00,,,0.31,VWS V14.00,2013-02-12 01:55:00,
2013-02-11 19:58:00,51.4,21.8,28.23,ENE,60,0.0,0.0,31,0.00,,,0.31,VWS V14.00,2013-02-12 01:58:00,
2013-02-11 19:59:00,51.4,22.6,28.23,ENE,59,0.0,0.0,32,0.00,,,0.00,VWS V14.00,2013-02-12 01:59:00,
2013-02-11 20:00:00,51.4,22.6,28.23,ENE,59,0.0,0.0,32,0.00,,,0.00,VWS V14.00,2013-02-12 02:00:00,
2013-02-11 20:04:00,51.4,21.8,28.23,ENE,59,0.0,0.0,31,0.00,,,0.31,VWS V14.00,2013-02-12 02:04:00,
2013-02-11 20:05:00,51.4,21.8,28.23,ENE,66,0.0,0.0,31,0.00,,,0.31,VWS V14.00,2013-02-12 02:05:00,
2013-02-11 20:06:00,51.4,21.8,28.23,ENE,70,0.0,0.0,31,0.00,,,0.31,VWS V14.00,2013-02-12 02:06:00,
2013-02-11 20:09:00,51.4,21.8,28.23,NNE,27,0.0,0.0,31,0.00,,,0.31,VWS V14.00,2013-02-12 02:09:00,
2013-02-11 20:10:00,51.4,21.8,28.23,ENE,69,0.0,0.0,31,0.00,,,0.31,VWS V14.00,2013-02-12 02:10:00,
2013-02-11 20:11:00,51.4,21.8,28.23,ENE,69,0.0,0.0,31,0.00,,,0.31,VWS V14.00,2013-02-12 02:11:00,
2013-02-11 20:14:00,51.3,21.7,28.23,NNE,32,0.0,0.0,31,0.00,,,0.31,VWS V14.00,2013-02-12 02:14:00,
2013-02-11 20:16:00,51.3,21.7,28.23,NE,38,0.0,0.0,31,0.00,,,0.31,VWS V14.00,2013-02-12 02:16:00,
2013-02-11 20:17:00,51.3,22.4,28.23,ENE,58,0.0,0.0,32,0.00,,,0.31,VWS V14.00,2013-02-12 02:17:00,
2013-02-11 20:19:00,51.3,22.4,28.23,NE,55,0.0,0.0,32,0.00,,,0.31,VWS V14.00,2013-02-12 02:19:00,
2013-02-11 20:22:00,51.1,22.3,28.23,NE,55,0.0,0.0,32,0.00,,,0.31,VWS V14.00,2013-02-12 02:22:00,
2013-02-11 20:23:00,51.1,22.3,28.23,NNE,31,0.0,0.0,32,0.00,,,0.31,VWS V14.00,2013-02-12 02:23:00,
2013-02-11 20:25:00,51.1,22.3,28.23,ENE,69,0.0,0.0,32,0.00,,,0.31,VWS V14.00,2013-02-12 02:25:00,
2013-02-11 20:27:00,51.1,22.3,28.23,ENE,57,0.0,0.0,32,0.00,,,0.31,VWS V14.00,2013-02-12 02:27:00,
2013-02-11 20:28:00,51.1,22.3,28.23,ENE,61,0.0,0.0,32,0.00,,,0.31,VWS V14.00,2013-02-12 02:28:00,
2013-02-11 20:30:00,51.1,22.3,28.23,ENE,64,0.0,0.0,32,0.00,,,0.31,VWS V14.00,2013-02-12 02:30:00,
2013-02-11 20:32:00,51.1,22.3,28.23,NNE,15,0.0,0.0,32,0.00,,,0.31,VWS V14.00,2013-02-12 02:32:00,
2013-02-11 20:33:00,51.1,22.3,28.23,ENE,59,0.0,0.0,32,0.00,,,0.31,VWS V14.00,2013-02-12 02:33:00,
2013-02-11 20:34:00,51.1,22.3,28.23,NE,51,0.0,0.0,32,0.00,,,0.31,VWS V14.00,2013-02-12 02:34:00,
2013-02-11 20:36:00,51.1,21.5,28.23,ENE,61,0.0,0.0,31,0.00,,,0.31,VWS V14.00,2013-02-12 02:36:00,
2013-02-11 20:37:00,51.1,21.5,28.23,NE,40,0.0,0.0,31,0.00,,,0.31,VWS V14.00,2013-02-12 02:37:00,
2013-02-11 20:38:00,51.1,21.5,28.23,NE,39,0.0,0.0,31,0.00,,,0.31,VWS V14.00,2013-02-12 02:38:00,
2013-02-11 20:39:00,51.1,21.5,28.23,NE,41,0.0,0.0,31,0.00,,,0.31,VWS V14.00,2013-02-12 02:39:00,
2013-02-11 20:42:00,51.1,21.5,28.23,ENE,65,0.0,0.0,31,0.00,,,0.31,VWS V14.00,2013-02-12 02:42:00,
2013-02-11 20:43:00,51.1,21.5,28.23,ENE,64,0.0,0.0,31,0.00,,,0.31,VWS V14.00,2013-02-12 02:43:00,
2013-02-11 20:45:00,51.1,21.5,28.23,ENE,64,0.0,0.0,31,0.00,,,0.31,VWS V14.00,2013-02-12 02:45:00,
2013-02-11 20:47:00,51.1,21.5,28.23,ENE,61,0.0,0.0,31,0.00,,,0.31,VWS V14.00,2013-02-12 02:47:00,
2013-02-11 20:48:00,51.1,21.5,28.23,NE,50,0.0,0.0,31,0.00,,,0.31,VWS V14.00,2013-02-12 02:48:00,
2013-02-11 20:50:00,51.1,21.5,28.23,NE,37,0.0,0.0,31,0.00,,,0.31,VWS V14.00,2013-02-12 02:50:00,
2013-02-11 20:52:00,51.1,21.5,28.23,ENE,66,0.0,0.0,31,0.00,,,0.31,VWS V14.00,2013-02-12 02:52:00,
2013-02-11 20:54:00,51.1,21.5,28.23,NE,34,0.0,0.0,31,0.00,,,0.31,VWS V14.00,2013-02-12 02:54:00,
2013-02-11 20:55:00,51.1,21.5,28.23,NE,34,0.0,0.0,31,0.00,,,0.31,VWS V14.00,2013-02-12 02:55:00,
2013-02-11 20:59:00,50.9,21.4,28.23,ENE,57,0.0,0.0,31,0.00,,,0.00,VWS V14.00,2013-02-12 02:59:00,
2013-02-11 21:01:00,50.9,21.4,28.23,NE,51,0.0,0.0,31,0.00,,,0.31,VWS V14.00,2013-02-12 03:01:00,
2013-02-11 21:04:00,50.9,21.4,28.20,NE,51,0.0,0.0,31,0.00,,,0.31,VWS V14.00,2013-02-12 03:04:00,
2013-02-11 21:06:00,50.9,21.4,28.20,ENE,60,0.0,0.0,31,0.00,,,0.31,VWS V14.00,2013-02-12 03:06:00,
2013-02-11 21:07:00,50.9,21.4,28.20,ENE,60,0.0,0.0,31,0.00,,,0.31,VWS V14.00,2013-02-12 03:07:00,
2013-02-11 21:09:00,50.9,21.4,28.20,ENE,60,0.0,0.0,31,0.00,,,0.31,VWS V14.00,2013-02-12 03:09:00,
2013-02-11 21:10:00,50.9,21.4,28.20,ENE,60,0.0,0.0,31,0.00,,,0.31,VWS V14.00,2013-02-12 03:10:00,
2013-02-11 21:12:00,50.9,21.4,28.20,ENE,73,0.0,0.0,31,0.00,,,0.31,VWS V14.00,2013-02-12 03:12:00,
2013-02-11 21:15:00,50.9,21.4,28.20,NE,43,0.0,0.0,31,0.00,,,0.31,VWS V14.00,2013-02-12 03:15:00,
2013-02-11 21:17:00,50.9,21.4,28.20,NNE,16,0.0,0.0,31,0.00,,,0.31,VWS V14.00,2013-02-12 03:17:00,
2013-02-11 21:20:00,50.9,21.4,28.20,NNE,21,0.0,0.0,31,0.00,,,0.31,VWS V14.00,2013-02-12 03:20:00,
2013-02-11 21:22:00,50.9,21.4,28.20,NE,42,0.0,0.0,31,0.00,,,0.31,VWS V14.00,2013-02-12 03:22:00,
2013-02-11 21:25:00,50.9,21.4,28.20,NE,46,0.0,0.0,31,0.00,,,0.31,VWS V14.00,2013-02-12 03:25:00,
2013-02-11 21:26:00,50.9,21.4,28.20,NE,46,0.0,0.0,31,0.00,,,0.31,VWS V14.00,2013-02-12 03:26:00,
2013-02-11 21:28:00,50.9,21.4,28.20,NE,39,0.0,0.0,31,0.00,,,0.31,VWS V14.00,2013-02-12 03:28:00,
2013-02-11 21:30:00,50.9,21.4,28.20,ENE,70,0.0,0.0,31,0.00,,,0.31,VWS V14.00,2013-02-12 03:30:00,
2013-02-11 21:31:00,50.9,21.4,28.20,ENE,65,0.0,0.0,31,0.00,,,0.31,VWS V14.00,2013-02-12 03:31:00,
2013-02-11 21:33:00,50.9,21.4,28.20,NE,53,0.0,0.0,31,0.00,,,0.31,VWS V14.00,2013-02-12 03:33:00,
2013-02-11 21:36:00,50.7,20.4,28.20,ENE,57,0.0,0.0,30,0.00,,,0.31,VWS V14.00,2013-02-12 03:36:00,
2013-02-11 21:39:00,50.7,21.2,28.20,ENE,61,0.0,0.0,31,0.00,,,0.31,VWS V14.00,2013-02-12 03:39:00,
2013-02-11 21:41:00,50.7,20.4,28.20,ENE,58,0.0,0.0,30,0.00,,,0.31,VWS V14.00,2013-02-12 03:41:00,
2013-02-11 21:42:00,50.7,20.4,28.20,ENE,58,0.0,0.0,30,0.00,,,0.31,VWS V14.00,2013-02-12 03:42:00,
2013-02-11 21:45:00,50.7,20.4,28.20,ENE,62,0.0,0.0,30,0.00,,,0.31,VWS V14.00,2013-02-12 03:45:00,
2013-02-11 21:48:00,50.7,20.4,28.20,NE,42,0.0,0.0,30,0.00,,,0.31,VWS V14.00,2013-02-12 03:48:00,
2013-02-11 21:51:00,50.7,20.4,28.20,NNE,26,0.0,0.0,30,0.00,,,0.31,VWS V14.00,2013-02-12 03:51:00,
2013-02-11 21:53:00,50.7,20.4,28.20,NNE,33,0.0,0.0,30,0.00,,,0.31,VWS V14.00,2013-02-12 03:53:00,
2013-02-11 21:54:00,50.7,20.4,28.20,NNE,33,0.0,0.0,30,0.00,,,0.31,VWS V14.00,2013-02-12 03:54:00,
2013-02-11 21:56:00,50.5,20.3,28.20,NNE,32,0.0,0.0,30,0.00,,,0.31,VWS V14.00,2013-02-12 03:56:00,
2013-02-11 21:59:00,50.7,21.2,28.20,NNE,32,0.0,0.0,31,0.00,,,0.00,VWS V14.00,2013-02-12 03:59:00,
2013-02-11 22:02:00,50.5,20.3,28.20,NNE,29,0.0,0.0,30,0.00,,,0.31,VWS V14.00,2013-02-12 04:02:00,
2013-02-11 22:03:00,50.7,20.4,28.20,NNE,29,0.0,0.0,30,0.00,,,0.31,VWS V14.00,2013-02-12 04:03:00,
2013-02-11 22:04:00,50.7,20.4,28.20,NNE,19,0.0,0.0,30,0.00,,,0.31,VWS V14.00,2013-02-12 04:04:00,
2013-02-11 22:09:00,50.5,20.3,28.20,NNE,28,0.0,0.0,30,0.00,,,0.31,VWS V14.00,2013-02-12 04:09:00,
2013-02-11 22:10:00,50.5,20.3,28.20,NNE,17,0.0,0.0,30,0.00,,,0.31,VWS V14.00,2013-02-12 04:10:00,
2013-02-11 22:11:00,50.5,20.3,28.20,NNE,18,0.0,0.0,30,0.00,,,0.31,VWS V14.00,2013-02-12 04:11:00,
2013-02-11 22:14:00,50.5,20.3,28.20,North,11,0.0,0.0,30,0.00,,,0.31,VWS V14.00,2013-02-12 04:14:00,
2013-02-11 22:16:00,50.5,20.3,28.20,NNE,25,0.0,0.0,30,0.00,,,0.31,VWS V14.00,2013-02-12 04:16:00,
2013-02-11 22:17:00,50.5,20.3,28.20,NNE,25,0.0,0.0,30,0.00,,,0.31,VWS V14.00,2013-02-12 04:17:00,
2013-02-11 22:19:00,50.5,19.5,28.20,NE,48,0.0,0.0,29,0.00,,,0.31,VWS V14.00,2013-02-12 04:19:00,
2013-02-11 22:22:00,50.4,19.3,28.20,NE,41,0.0,0.0,29,0.00,,,0.31,VWS V14.00,2013-02-12 04:22:00,
2013-02-11 22:23:00,50.4,19.3,28.20,NE,40,0.0,0.0,29,0.00,,,0.31,VWS V14.00,2013-02-12 04:23:00,
2013-02-11 22:24:00,50.4,19.3,28.20,NE,39,0.0,0.0,29,0.00,,,0.31,VWS V14.00,2013-02-12 04:24:00,
2013-02-11 22:25:00,50.4,20.1,28.20,NNE,26,0.0,0.0,30,0.00,,,0.31,VWS V14.00,2013-02-12 04:25:00,
2013-02-11 22:27:00,50.5,20.3,28.20,NNE,26,0.0,0.0,30,0.00,,,0.31,VWS V14.00,2013-02-12 04:27:00,
2013-02-11 22:28:00,50.4,20.1,28.20,NNE,26,0.0,0.0,30,0.00,,,0.31,VWS V14.00,2013-02-12 04:28:00,
2013-02-11 22:30:00,50.4,20.1,28.20,NNE,26,0.0,0.0,30,0.00,,,0.31,VWS V14.00,2013-02-12 04:30:00,
2013-02-11 22:32:00,50.4,20.1,28.20,NNE,15,0.0,0.0,30,0.00,,,0.31,VWS V14.00,2013-02-12 04:32:00,
2013-02-11 22:33:00,50.4,20.1,28.20,NNE,25,0.0,0.0,30,0.00,,,0.31,VWS V14.00,2013-02-12 04:33:00,
2013-02-11 22:34:00,50.4,20.1,28.20,NNE,22,0.0,0.0,30,0.00,,,0.31,VWS V14.00,2013-02-12 04:34:00,
2013-02-11 22:35:00,50.4,20.1,28.20,NNE,31,0.0,0.0,30,0.00,,,0.31,VWS V14.00,2013-02-12 04:35:00,
2013-02-11 22:38:00,50.4,20.1,28.20,NE,39,0.0,0.0,30,0.00,,,0.31,VWS V14.00,2013-02-12 04:38:00,
2013-02-11 22:39:00,50.2,20.0,28.20,NE,37,0.0,0.0,30,0.00,,,0.31,VWS V14.00,2013-02-12 04:39:00,
2013-02-11 22:40:00,50.2,20.0,28.20,NE,37,0.0,0.0,30,0.00,,,0.31,VWS V14.00,2013-02-12 04:40:00,
2013-02-11 22:44:00,50.2,19.2,28.20,NNE,31,0.0,0.0,29,0.00,,,0.31,VWS V14.00,2013-02-12 04:44:00,
2013-02-11 22:45:00,50.2,19.2,28.20,NNE,31,0.0,0.0,29,0.00,,,0.31,VWS V14.00,2013-02-12 04:45:00,
2013-02-11 22:46:00,50.2,19.2,28.20,NNE,31,0.0,0.0,29,0.00,,,0.31,VWS V14.00,2013-02-12 04:46:00,
2013-02-11 22:49:00,50.2,19.2,28.20,North,11,0.0,0.0,29,0.00,,,0.31,VWS V14.00,2013-02-12 04:49:00,
2013-02-11 22:50:00,50.2,19.2,28.20,NE,40,0.0,0.0,29,0.00,,,0.31,VWS V14.00,2013-02-12 04:50:00,
2013-02-11 22:51:00,50.2,19.2,28.20,NE,40,0.0,0.0,29,0.00,,,0.31,VWS V14.00,2013-02-12 04:51:00,
2013-02-11 22:54:00,50.0,19.0,28.20,NE,42,0.0,0.0,29,0.00,,,0.31,VWS V14.00,2013-02-12 04:54:00,
2013-02-11 22:56:00,50.0,19.0,28.20,NE,36,0.0,0.0,29,0.00,,,0.31,VWS V14.00,2013-02-12 04:56:00,
2013-02-11 23:00:00,50.2,19.2,28.20,NE,36,0.0,0.0,29,0.00,,,0.00,VWS V14.00,2013-02-12 05:00:00,
2013-02-11 23:01:00,50.2,19.2,28.20,NE,36,0.0,0.0,29,0.00,,,0.00,VWS V14.00,2013-02-12 05:01:00,
2013-02-11 23:02:00,50.0,19.0,28.20,NE,38,0.0,0.0,29,0.00,,,0.31,VWS V14.00,2013-02-12 05:02:00,
2013-02-11 23:05:00,50.0,19.8,28.20,NE,38,0.0,0.0,30,0.00,,,0.31,VWS V14.00,2013-02-12 05:05:00,
2013-02-11 23:06:00,50.0,19.8,28.20,NE,38,0.0,0.0,30,0.00,,,0.31,VWS V14.00,2013-02-12 05:06:00,
2013-02-11 23:07:00,50.0,19.8,28.20,NNE,23,0.0,0.0,30,0.00,,,0.31,VWS V14.00,2013-02-12 05:07:00,
2013-02-11 23:10:00,50.0,19.8,28.20,NNE,24,0.0,0.0,30,0.00,,,0.31,VWS V14.00,2013-02-12 05:10:00,
2013-02-11 23:11:00,50.0,19.8,28.20,NNE,20,0.0,0.0,30,0.00,,,0.31,VWS V14.00,2013-02-12 05:11:00,
2013-02-11 23:13:00,49.8,19.6,28.20,NNE,23,0.0,0.0,30,0.00,,,0.31,VWS V14.00,2013-02-12 05:13:00,
2013-02-11 23:16:00,49.8,19.6,28.20,NNE,23,0.0,0.0,30,0.00,,,0.31,VWS V14.00,2013-02-12 05:16:00,
2013-02-11 23:17:00,49.8,19.6,28.20,NNE,23,0.0,0.0,30,0.00,,,0.31,VWS V14.00,2013-02-12 05:17:00,
2013-02-11 23:19:00,49.8,19.6,28.20,NNE,23,0.0,0.0,30,0.00,,,0.31,VWS V14.00,2013-02-12 05:19:00,
2013-02-11 23:21:00,49.8,19.6,28.20,NNE,23,0.0,0.0,30,0.00,,,0.31,VWS V14.00,2013-02-12 05:21:00,
2013-02-11 23:22:00,49.8,19.6,28.20,NNE,23,0.0,0.0,30,0.00,,,0.31,VWS V14.00,2013-02-12 05:22:00,
2013-02-11 23:23:00,49.8,19.6,28.20,NNE,23,0.0,0.0,30,0.00,,,0.31,VWS V14.00,2013-02-12 05:23:00,
2013-02-11 23:24:00,49.8,19.6,28.20,NNE,23,0.0,0.0,30,0.00,,,0.31,VWS V14.00,2013-02-12 05:24:00,
2013-02-11 23:26:00,49.8,19.6,28.20,NNE,23,0.0,0.0,30,0.00,,,0.31,VWS V14.00,2013-02-12 05:26:00,
2013-02-11 23:27:00,49.8,19.6,28.20,NNE,23,0.0,0.0,30,0.00,,,0.31,VWS V14.00,2013-02-12 05:27:00,
2013-02-11 23:28:00,49.8,19.6,28.20,NNE,23,0.0,0.0,30,0.00,,,0.31,VWS V14.00,2013-02-12 05:28:00,
2013-02-11 23:30:00,49.8,19.6,28.20,NNE,23,0.0,0.0,30,0.00,,,0.31,VWS V14.00,2013-02-12 05:30:00,
2013-02-11 23:31:00,49.8,19.6,28.20,NNE,23,0.0,0.0,30,0.00,,,0.31,VWS V14.00,2013-02-12 05:31:00,
2013-02-11 23:32:00,49.8,19.6,28.17,NNE,23,0.0,0.0,30,0.00,,,0.31,VWS V14.00,2013-02-12 05:32:00,
2013-02-11 23:34:00,49.8,19.6,28.17,NNE,23,0.0,0.0,30,0.00,,,0.31,VWS V14.00,2013-02-12 05:34:00,
2013-02-11 23:35:00,49.8,19.6,28.17,NNE,23,0.0,0.0,30,0.00,,,0.31,VWS V14.00,2013-02-12 05:35:00,
2013-02-11 23:37:00,50.0,19.8,28.17,NNE,23,0.0,0.0,30,0.00,,,0.31,VWS V14.00,2013-02-12 05:37:00,
2013-02-11 23:38:00,50.0,19.8,28.17,NNE,23,0.0,0.0,30,0.00,,,0.31,VWS V14.00,2013-02-12 05:38:00,
2013-02-11 23:39:00,50.0,19.8,28.17,NNE,23,0.0,0.0,30,0.00,,,0.31,VWS V14.00,2013-02-12 05:39:00,
2013-02-11 23:40:00,50.0,19.0,28.17,NNE,23,0.0,0.0,29,0.00,,,0.31,VWS V14.00,2013-02-12 05:40:00,
2013-02-11 23:43:00,50.0,19.0,28.17,NNE,23,0.0,0.0,29,0.00,,,0.31,VWS V14.00,2013-02-12 05:43:00,
2013-02-11 23:45:00,50.0,19.8,28.17,NNE,23,0.0,0.0,30,0.00,,,0.31,VWS V14.00,2013-02-12 05:45:00,
2013-02-11 23:46:00,50.0,19.8,28.17,NNE,23,0.0,0.0,30,0.00,,,0.31,VWS V14.00,2013-02-12 05:46:00,
2013-02-11 23:47:00,50.0,19.8,28.17,NNE,23,0.0,0.0,30,0.00,,,0.31,VWS V14.00,2013-02-12 05:47:00,
2013-02-11 23:49:00,50.0,19.8,28.17,NNE,23,0.0,0.0,30,0.00,,,0.31,VWS V14.00,2013-02-12 05:49:00,
2013-02-11 23:50:00,50.0,19.8,28.17,NNE,23,0.0,0.0,30,0.00,,,0.31,VWS V14.00,2013-02-12 05:50:00,
2013-02-11 23:51:00,50.0,19.8,28.17,NNE,23,0.0,0.0,30,0.00,,,0.31,VWS V14.00,2013-02-12 05:51:00,
2013-02-11 23:53:00,50.0,20.6,28.17,NNE,23,0.0,0.0,31,0.00,,,0.31,VWS V14.00,2013-02-12 05:53:00,
2013-02-11 23:54:00,50.0,19.8,28.17,NNE,23,0.0,0.0,30,0.00,,,0.31,VWS V14.00,2013-02-12 05:54:00,
2013-02-11 23:56:00,50.0,19.8,28.17,NNE,23,0.0,0.0,30,0.00,,,0.31,VWS V14.00,2013-02-12 05:56:00,
2013-02-11 23:58:00,50.0,19.8,28.17,NNE,23,0.0,0.0,30,0.00,,,0.31,VWS V14.00,2013-02-12 05:58:00,
2013-02-11 23:59:00,50.0,19.8,28.17,NNE,23,0.0,0.0,30,0.00,,,0.00,VWS V14.00,2013-02-12 05:59:00,